Time,TemperatureF,DewpointF,PressureIn,WindDirection,WindDirectionDegrees,WindSpeedMPH,WindSpeedGustMPH,Humidity,HourlyPrecipIn,Conditions,Clouds,dailyrainin,SoftwareType,DateUTC
2013-01-30 00:01:00,42.1,42.1,30.43,SSW,211,9.2,9.2,100,0.01,RA,OVC,0.00,WeatherDisplay:10.37,2013-01-30 08:01:00,
2013-01-30 00:02:00,42.1,42.1,30.43,SW,226,11.5,11.5,100,0.01,RA,OVC,0.00,WeatherDisplay:10.37,2013-01-30 08:02:00,
2013-01-30 00:03:00,42.1,42.1,30.43,SW,223,9.2,9.2,100,0.01,RA,OVC,0.00,WeatherDisplay:10.37,2013-01-30 08:03:00,
2013-01-30 00:06:00,42.1,42.1,30.43,SW,220,13.0,13.0,100,0.01,RA,OVC,0.00,WeatherDisplay:10.37,2013-01-30 08:06:00,
2013-01-30 00:07:00,42.1,42.1,30.43,SW,227,12.7,12.7,100,0.01,RA,OVC,0.00,WeatherDisplay:10.37,2013-01-30 08:07:00,
2013-01-30 00:08:00,42.2,42.2,30.43,SSW,210,9.2,9.2,100,0.01,RA,OVC,0.00,WeatherDisplay:10.37,2013-01-30 08:08:00,
2013-01-30 00:11:00,42.2,42.2,30.43,SSW,211,10.4,10.4,100,0.01,CLR,OVC,0.00,WeatherDisplay:10.37,2013-01-30 08:11:00,
2013-01-30 00:12:00,42.2,42.2,30.43,SW,219,6.9,6.9,100,0.01,CLR,OVC,0.00,WeatherDisplay:10.37,2013-01-30 08:12:00,
2013-01-30 00:13:00,42.2,42.2,30.43,SW,223,6.9,6.9,100,0.01,CLR,OVC,0.00,WeatherDisplay:10.37,2013-01-30 08:13:00,
2013-01-30 00:16:00,42.2,42.2,30.43,SW,217,11.5,11.5,100,0.01,CLR,OVC,0.00,WeatherDisplay:10.37,2013-01-30 08:16:00,
2013-01-30 00:18:00,42.2,42.2,30.43,SSW,194,8.1,8.1,100,0.01,CLR,OVC,0.00,WeatherDisplay:10.37,2013-01-30 08:18:00,
2013-01-30 00:21:00,42.3,42.3,30.43,SSW,207,11.5,11.5,100,0.01,CLR,OVC,0.00,WeatherDisplay:10.37,2013-01-30 08:21:00,
2013-01-30 00:23:00,42.3,42.3,30.43,SSW,210,10.4,10.4,100,0.01,CLR,OVC,0.00,WeatherDisplay:10.37,2013-01-30 08:23:00,
2013-01-30 00:24:00,42.3,42.3,30.43,SW,219,10.4,10.4,100,0.01,CLR,OVC,0.00,WeatherDisplay:10.37,2013-01-30 08:24:00,
2013-01-30 00:26:00,42.3,42.3,30.43,SSW,208,13.8,13.8,100,0.01,CLR,OVC,0.00,WeatherDisplay:10.37,2013-01-30 08:26:00,
2013-01-30 00:28:00,42.3,42.3,30.42,SSW,200,15.0,15.0,100,0.01,CLR,OVC,0.00,WeatherDisplay:10.37,2013-01-30 08:28:00,
2013-01-30 00:29:00,42.3,42.3,30.42,SSW,212,15.0,15.0,100,0.01,CLR,OVC,0.00,WeatherDisplay:10.37,2013-01-30 08:29:00,
2013-01-30 00:31:00,42.3,42.3,30.43,SSW,207,10.4,10.4,100,0.01,CLR,OVC,0.00,WeatherDisplay:10.37,2013-01-30 08:31:00,
2013-01-30 00:33:00,42.3,42.3,30.43,South,185,8.1,8.1,100,0.01,CLR,OVC,0.00,WeatherDisplay:10.37,2013-01-30 08:33:00,
2013-01-30 00:34:00,42.3,42.3,30.43,South,186,8.1,8.1,100,0.01,CLR,OVC,0.00,WeatherDisplay:10.37,2013-01-30 08:34:00,
2013-01-30 00:36:00,42.3,42.3,30.42,SSW,196,10.4,10.4,100,0.01,CLR,OVC,0.00,WeatherDisplay:10.37,2013-01-30 08:36:00,
2013-01-30 00:38:00,42.4,42.4,30.43,SSW,198,8.1,8.1,100,0.01,CLR,OVC,0.00,WeatherDisplay:10.37,2013-01-30 08:38:00,
2013-01-30 00:39:00,42.4,42.4,30.43,SSW,209,8.1,8.1,100,0.01,CLR,OVC,0.00,WeatherDisplay:10.37,2013-01-30 08:39:00,
2013-01-30 00:41:00,42.3,42.3,30.42,SW,221,15.0,15.0,100,0.00,CLR,OVC,0.00,WeatherDisplay:10.37,2013-01-30 08:41:00,
2013-01-30 00:44:00,42.3,42.3,30.42,SSW,204,11.5,11.5,100,0.00,CLR,OVC,0.00,WeatherDisplay:10.37,2013-01-30 08:44:00,
2013-01-30 00:45:00,42.3,42.3,30.42,South,191,11.0,11.0,100,0.00,CLR,OVC,0.00,WeatherDisplay:10.37,2013-01-30 08:45:00,
2013-01-30 00:46:00,42.3,42.3,30.42,SW,226,12.7,12.7,100,0.00,CLR,OVC,0.00,WeatherDisplay:10.37,2013-01-30 08:46:00,
2013-01-30 00:49:00,42.3,42.3,30.42,SW,227,15.0,15.0,100,0.00,CLR,OVC,0.00,WeatherDisplay:10.37,2013-01-30 08:49:00,
2013-01-30 00:50:00,42.2,42.2,30.42,South,178,11.5,11.5,100,0.00,CLR,OVC,0.00,WeatherDisplay:10.37,2013-01-30 08:50:00,
2013-01-30 00:51:00,42.2,42.2,30.42,SSW,211,10.4,10.4,100,0.00,CLR,OVC,0.00,WeatherDisplay:10.37,2013-01-30 08:51:00,
2013-01-30 00:54:00,42.2,42.2,30.42,SSW,212,8.1,8.1,100,0.00,CLR,OVC,0.00,WeatherDisplay:10.37,2013-01-30 08:54:00,
2013-01-30 00:55:00,42.2,42.2,30.42,SSW,202,10.4,10.4,100,0.00,CLR,OVC,0.00,WeatherDisplay:10.37,2013-01-30 08:55:00,
2013-01-30 00:56:00,42.1,42.1,30.42,SSW,194,11.5,11.5,100,0.00,CLR,OVC,0.00,WeatherDisplay:10.37,2013-01-30 08:56:00,
2013-01-30 00:59:00,42.1,42.1,30.43,SSW,205,11.5,11.5,100,0.00,CLR,OVC,0.00,WeatherDisplay:10.37,2013-01-30 08:59:00,
2013-01-30 01:00:00,42.1,42.1,30.43,SSW,204,12.0,12.0,100,0.00,CLR,OVC,0.00,WeatherDisplay:10.37,2013-01-30 09:00:00,
2013-01-30 01:01:00,42.1,42.1,30.43,SSW,199,12.7,12.7,100,0.00,CLR,OVC,0.00,WeatherDisplay:10.37,2013-01-30 09:01:00,
2013-01-30 01:04:00,42.0,42.0,30.43,South,178,8.1,8.1,100,0.00,CLR,OVC,0.00,WeatherDisplay:10.37,2013-01-30 09:04:00,
2013-01-30 01:05:00,42.0,42.0,30.43,SW,224,11.5,11.5,100,0.00,CLR,OVC,0.00,WeatherDisplay:10.37,2013-01-30 09:05:00,
2013-01-30 01:06:00,42.0,42.0,30.43,SSW,210,12.7,12.7,100,0.00,CLR,OVC,0.00,WeatherDisplay:10.37,2013-01-30 09:06:00,
2013-01-30 01:09:00,42.0,42.0,30.43,South,188,9.2,9.2,100,0.00,CLR,OVC,0.00,WeatherDisplay:10.37,2013-01-30 09:09:00,
2013-01-30 01:10:00,42.0,42.0,30.43,South,184,9.2,9.2,100,0.00,CLR,OVC,0.00,WeatherDisplay:10.37,2013-01-30 09:10:00,
2013-01-30 01:12:00,42.0,42.0,30.43,South,191,8.1,8.1,100,0.00,CLR,OVC,0.00,WeatherDisplay:10.37,2013-01-30 09:12:00,
2013-01-30 01:14:00,41.9,41.9,30.42,SSW,202,15.0,15.0,100,0.00,CLR,OVC,0.00,WeatherDisplay:10.37,2013-01-30 09:14:00,
2013-01-30 01:15:00,41.9,41.9,30.42,SSW,211,10.0,10.0,100,0.00,CLR,OVC,0.00,WeatherDisplay:10.37,2013-01-30 09:15:00,
2013-01-30 01:17:00,41.9,41.9,30.42,South,177,10.4,10.4,100,0.00,CLR,OVC,0.00,WeatherDisplay:10.37,2013-01-30 09:17:00,
2013-01-30 01:19:00,41.9,41.9,30.42,SSW,209,11.0,11.0,100,0.00,CLR,OVC,0.00,WeatherDisplay:10.37,2013-01-30 09:19:00,
2013-01-30 01:20:00,41.9,41.9,30.42,SSW,202,11.0,11.0,100,0.00,CLR,OVC,0.00,WeatherDisplay:10.37,2013-01-30 09:20:00,
2013-01-30 01:22:00,41.8,41.8,30.42,SSW,205,11.0,11.0,100,0.00,CLR,OVC,0.00,WeatherDisplay:10.37,2013-01-30 09:22:00,
2013-01-30 01:24:00,41.8,41.8,30.42,South,184,15.0,15.0,100,0.00,CLR,OVC,0.00,WeatherDisplay:10.37,2013-01-30 09:24:00,
2013-01-30 01:25:00,41.8,41.8,30.42,South,182,15.0,15.0,100,0.00,CLR,OVC,0.00,WeatherDisplay:10.37,2013-01-30 09:25:00,
2013-01-30 01:26:00,41.8,41.8,30.42,SSW,203,12.0,12.0,100,0.00,CLR,OVC,0.00,WeatherDisplay:10.37,2013-01-30 09:26:00,
2013-01-30 01:27:00,41.8,41.8,30.42,SSW,207,11.5,11.5,100,0.00,CLR,OVC,0.00,WeatherDisplay:10.37,2013-01-30 09:27:00,
2013-01-30 01:29:00,41.8,41.8,30.42,SSW,208,11.5,11.5,100,0.00,CLR,OVC,0.01,WeatherDisplay:10.37,2013-01-30 09:29:00,
2013-01-30 01:30:00,41.8,41.8,30.41,SSW,198,11.5,11.5,100,0.00,CLR,OVC,0.01,WeatherDisplay:10.37,2013-01-30 09:30:00,
2013-01-30 01:31:00,41.8,41.8,30.42,SSW,211,10.0,10.0,100,0.01,RA,OVC,0.01,WeatherDisplay:10.37,2013-01-30 09:31:00,
2013-01-30 01:32:00,41.8,41.8,30.41,SSW,206,17.3,17.3,100,0.01,RA,OVC,0.01,WeatherDisplay:10.37,2013-01-30 09:32:00,
2013-01-30 01:34:00,41.8,41.8,30.42,SW,215,11.5,11.5,100,0.01,RA,OVC,0.01,WeatherDisplay:10.37,2013-01-30 09:34:00,
2013-01-30 01:35:00,41.8,41.8,30.42,SW,223,11.5,11.5,100,0.01,RA,OVC,0.01,WeatherDisplay:10.37,2013-01-30 09:35:00,
2013-01-30 01:36:00,41.8,41.8,30.42,SSW,213,17.3,17.3,100,0.01,RA,OVC,0.01,WeatherDisplay:10.37,2013-01-30 09:36:00,
2013-01-30 01:37:00,41.8,41.8,30.42,SSE,159,11.5,11.5,100,0.01,RA,OVC,0.01,WeatherDisplay:10.37,2013-01-30 09:37:00,
2013-01-30 01:39:00,41.8,41.8,30.42,South,170,15.0,15.0,100,0.01,RA,OVC,0.01,WeatherDisplay:10.37,2013-01-30 09:39:00,
2013-01-30 01:40:00,41.8,41.8,30.42,South,170,15.0,15.0,100,0.01,,OVC,0.01,WeatherDisplay:10.37,2013-01-30 09:40:00,
2013-01-30 01:41:00,41.8,41.8,30.42,SSE,161,9.2,9.2,100,0.01,,OVC,0.01,WeatherDisplay:10.37,2013-01-30 09:41:00,
2013-01-30 01:43:00,41.8,41.8,30.42,SSW,200,10.4,10.4,100,0.01,CLR,OVC,0.01,WeatherDisplay:10.37,2013-01-30 09:43:00,
2013-01-30 01:45:00,41.8,41.8,30.43,SSE,165,11.5,11.5,100,0.01,CLR,OVC,0.01,WeatherDisplay:10.37,2013-01-30 09:45:00,
2013-01-30 01:46:00,41.8,41.8,30.43,SSW,213,13.0,13.0,100,0.01,CLR,OVC,0.01,WeatherDisplay:10.37,2013-01-30 09:46:00,
2013-01-30 01:48:00,41.8,41.8,30.42,South,178,12.7,12.7,100,0.01,CLR,OVC,0.01,WeatherDisplay:10.37,2013-01-30 09:48:00,
2013-01-30 01:50:00,41.8,41.8,30.42,SSW,205,12.7,12.7,100,0.01,CLR,OVC,0.01,WeatherDisplay:10.37,2013-01-30 09:50:00,
2013-01-30 01:51:00,41.8,41.8,30.42,SSW,205,15.0,15.0,100,0.01,CLR,OVC,0.01,WeatherDisplay:10.37,2013-01-30 09:51:00,
2013-01-30 01:53:00,41.8,41.8,30.42,SSW,207,11.5,11.5,100,0.01,CLR,OVC,0.01,WeatherDisplay:10.37,2013-01-30 09:53:00,
2013-01-30 01:55:00,41.8,41.8,30.42,South,182,16.1,16.1,100,0.01,CLR,OVC,0.01,WeatherDisplay:10.37,2013-01-30 09:55:00,
2013-01-30 01:56:00,41.8,41.8,30.42,SSW,205,10.4,10.4,100,0.01,CLR,OVC,0.01,WeatherDisplay:10.37,2013-01-30 09:56:00,
2013-01-30 01:58:00,41.8,41.8,30.42,South,175,10.4,10.4,100,0.01,CLR,OVC,0.01,WeatherDisplay:10.37,2013-01-30 09:58:00,
2013-01-30 02:00:00,41.8,41.8,30.42,SSW,199,8.0,12.0,100,0.00,CLR,OVC,0.01,WeatherDisplay:10.37,2013-01-30 10:00:00,
2013-01-30 02:01:00,41.8,41.8,30.42,South,178,13.8,13.8,100,0.01,CLR,OVC,0.01,WeatherDisplay:10.37,2013-01-30 10:01:00,
2013-01-30 02:03:00,41.8,41.8,30.42,SSW,203,11.5,11.5,100,0.01,CLR,OVC,0.01,WeatherDisplay:10.37,2013-01-30 10:03:00,
2013-01-30 02:05:00,41.8,41.8,30.42,SSW,210,12.7,12.7,100,0.01,CLR,OVC,0.01,WeatherDisplay:10.37,2013-01-30 10:05:00,
2013-01-30 02:06:00,41.8,41.8,30.42,SW,229,8.1,8.1,100,0.01,CLR,OVC,0.01,WeatherDisplay:10.37,2013-01-30 10:06:00,
2013-01-30 02:08:00,41.8,41.8,30.42,SSW,202,11.5,11.5,100,0.01,CLR,OVC,0.01,WeatherDisplay:10.37,2013-01-30 10:08:00,
2013-01-30 02:10:00,41.8,41.8,30.42,SSW,213,12.7,12.7,100,0.02,RA,OVC,0.02,WeatherDisplay:10.37,2013-01-30 10:10:00,
2013-01-30 02:11:00,41.8,41.8,30.42,SW,215,15.0,15.0,100,0.02,RA,OVC,0.02,WeatherDisplay:10.37,2013-01-30 10:11:00,
2013-01-30 02:13:00,41.7,41.7,30.43,South,187,10.4,10.4,100,0.02,RA,OVC,0.02,WeatherDisplay:10.37,2013-01-30 10:13:00,
2013-01-30 02:15:00,41.7,41.7,30.42,SSW,192,11.5,11.5,100,0.02,RA,OVC,0.02,WeatherDisplay:10.37,2013-01-30 10:15:00,
2013-01-30 02:16:00,41.7,41.7,30.43,SSW,200,12.7,12.7,100,0.02,RA,OVC,0.02,WeatherDisplay:10.37,2013-01-30 10:16:00,
2013-01-30 02:18:00,41.7,41.7,30.43,South,181,8.1,8.1,100,0.02,RA,OVC,0.02,WeatherDisplay:10.37,2013-01-30 10:18:00,
2013-01-30 02:20:00,41.7,41.7,30.43,South,185,8.0,8.0,100,0.02,,OVC,0.02,WeatherDisplay:10.37,2013-01-30 10:20:00,
2013-01-30 02:21:00,41.7,41.7,30.43,South,178,11.5,11.5,100,0.02,CLR,OVC,0.02,WeatherDisplay:10.37,2013-01-30 10:21:00,
2013-01-30 02:23:00,41.8,41.8,30.43,SSW,203,12.0,12.0,100,0.02,CLR,OVC,0.02,WeatherDisplay:10.37,2013-01-30 10:23:00,
2013-01-30 02:25:00,41.7,41.7,30.43,South,191,7.0,12.0,100,0.00,CLR,OVC,0.02,WeatherDisplay:10.37,2013-01-30 10:25:00,
2013-01-30 02:26:00,41.8,41.8,30.43,SW,225,9.2,9.2,100,0.02,CLR,OVC,0.02,WeatherDisplay:10.37,2013-01-30 10:26:00,
2013-01-30 02:28:00,41.7,41.7,30.43,SW,221,10.4,10.4,100,0.02,CLR,OVC,0.02,WeatherDisplay:10.37,2013-01-30 10:28:00,
2013-01-30 02:30:00,41.7,41.7,30.43,SW,218,11.5,11.5,100,0.02,CLR,OVC,0.02,WeatherDisplay:10.37,2013-01-30 10:30:00,
2013-01-30 02:31:00,41.7,41.7,30.43,SW,217,10.4,10.4,100,0.01,CLR,OVC,0.02,WeatherDisplay:10.37,2013-01-30 10:31:00,
2013-01-30 02:33:00,41.6,41.6,30.43,SW,214,11.5,11.5,100,0.01,CLR,OVC,0.02,WeatherDisplay:10.37,2013-01-30 10:33:00,
2013-01-30 02:35:00,41.7,41.7,30.43,SSW,211,7.0,12.0,100,0.00,RA,OVC,0.03,WeatherDisplay:10.37,2013-01-30 10:35:00,
2013-01-30 02:36:00,41.6,41.6,30.43,SSW,213,9.2,9.2,100,0.02,RA,OVC,0.03,WeatherDisplay:10.37,2013-01-30 10:36:00,
2013-01-30 02:37:00,41.6,41.6,30.43,SSW,202,6.0,6.0,100,0.02,RA,OVC,0.03,WeatherDisplay:10.37,2013-01-30 10:37:00,
2013-01-30 02:38:00,41.6,41.6,30.43,SSW,209,8.1,8.1,100,0.02,RA,OVC,0.03,WeatherDisplay:10.37,2013-01-30 10:38:00,
2013-01-30 02:40:00,41.6,41.6,30.43,SW,214,6.9,6.9,100,0.02,RA,OVC,0.03,WeatherDisplay:10.37,2013-01-30 10:40:00,
2013-01-30 02:41:00,41.6,41.6,30.43,SSW,212,6.9,6.9,100,0.02,RA,OVC,0.03,WeatherDisplay:10.37,2013-01-30 10:41:00,
2013-01-30 02:42:00,41.6,41.6,30.43,SW,215,11.5,11.5,100,0.02,RA,OVC,0.03,WeatherDisplay:10.37,2013-01-30 10:42:00,
2013-01-30 02:43:00,41.6,41.6,30.43,SSW,201,11.5,11.5,100,0.02,RA,OVC,0.03,WeatherDisplay:10.37,2013-01-30 10:43:00,
2013-01-30 02:45:00,41.6,41.6,30.43,SSW,198,13.0,13.0,100,0.02,,OVC,0.03,WeatherDisplay:10.37,2013-01-30 10:45:00,
2013-01-30 02:46:00,41.6,41.6,30.43,South,178,12.7,12.7,100,0.02,CLR,OVC,0.03,WeatherDisplay:10.37,2013-01-30 10:46:00,
2013-01-30 02:47:00,41.5,41.5,30.43,SSW,211,11.5,11.5,100,0.02,CLR,OVC,0.03,WeatherDisplay:10.37,2013-01-30 10:47:00,
2013-01-30 02:49:00,41.6,41.6,30.43,SW,216,8.1,8.1,100,0.02,CLR,OVC,0.03,WeatherDisplay:10.37,2013-01-30 10:49:00,
2013-01-30 02:50:00,41.5,41.5,30.43,SSW,192,8.1,8.1,100,0.02,CLR,OVC,0.03,WeatherDisplay:10.37,2013-01-30 10:50:00,
2013-01-30 02:51:00,41.5,41.5,30.43,SSW,194,5.8,5.8,100,0.02,CLR,OVC,0.03,WeatherDisplay:10.37,2013-01-30 10:51:00,
2013-01-30 02:52:00,41.5,41.5,30.43,SSW,194,3.5,3.5,100,0.02,CLR,OVC,0.03,WeatherDisplay:10.37,2013-01-30 10:52:00,
2013-01-30 02:54:00,41.6,41.6,30.43,SSW,204,8.0,8.0,100,0.02,,OVC,0.04,WeatherDisplay:10.37,2013-01-30 10:54:00,
2013-01-30 02:55:00,41.5,41.5,30.43,SSW,198,9.2,9.2,100,0.03,RA,OVC,0.04,WeatherDisplay:10.37,2013-01-30 10:55:00,
2013-01-30 02:56:00,41.5,41.5,30.43,South,180,11.5,11.5,100,0.03,RA,OVC,0.04,WeatherDisplay:10.37,2013-01-30 10:56:00,
2013-01-30 02:57:00,41.5,41.5,30.43,SW,217,11.5,11.5,100,0.03,RA,OVC,0.04,WeatherDisplay:10.37,2013-01-30 10:57:00,
2013-01-30 02:59:00,41.5,41.5,30.43,SW,221,6.9,6.9,100,0.03,RA,OVC,0.04,WeatherDisplay:10.37,2013-01-30 10:59:00,
2013-01-30 03:01:00,41.5,41.5,30.43,SW,217,9.2,9.2,100,0.03,RA,OVC,0.04,WeatherDisplay:10.37,2013-01-30 11:01:00,
2013-01-30 03:02:00,41.4,41.4,30.43,SSW,200,9.2,9.2,100,0.03,RA,OVC,0.04,WeatherDisplay:10.37,2013-01-30 11:02:00,
2013-01-30 03:04:00,41.4,41.4,30.43,SW,219,10.4,10.4,100,0.03,,OVC,0.04,WeatherDisplay:10.37,2013-01-30 11:04:00,
2013-01-30 03:06:00,41.5,41.5,30.43,SW,220,6.9,6.9,100,0.03,CLR,OVC,0.04,WeatherDisplay:10.37,2013-01-30 11:06:00,
2013-01-30 03:08:00,41.4,41.4,30.43,SSW,205,11.5,11.5,100,0.03,CLR,OVC,0.04,WeatherDisplay:10.37,2013-01-30 11:08:00,
2013-01-30 03:09:00,41.4,41.4,30.43,South,189,7.0,7.0,100,0.02,CLR,OVC,0.04,WeatherDisplay:10.37,2013-01-30 11:09:00,
2013-01-30 03:11:00,41.4,41.4,30.43,SSW,211,11.5,11.5,100,0.02,CLR,OVC,0.04,WeatherDisplay:10.37,2013-01-30 11:11:00,
2013-01-30 03:13:00,41.5,41.5,30.43,SW,216,11.5,11.5,100,0.02,CLR,OVC,0.04,WeatherDisplay:10.37,2013-01-30 11:13:00,
2013-01-30 03:14:00,41.4,41.4,30.43,SSW,213,9.2,9.2,100,0.02,CLR,OVC,0.04,WeatherDisplay:10.37,2013-01-30 11:14:00,
2013-01-30 03:16:00,41.4,41.4,30.43,SW,226,6.9,6.9,100,0.02,CLR,OVC,0.04,WeatherDisplay:10.37,2013-01-30 11:16:00,
2013-01-30 03:17:00,41.4,41.4,30.43,South,188,6.9,6.9,100,0.02,CLR,OVC,0.04,WeatherDisplay:10.37,2013-01-30 11:17:00,
2013-01-30 03:18:00,41.4,41.4,30.43,SSW,194,10.4,10.4,100,0.02,CLR,OVC,0.04,WeatherDisplay:10.37,2013-01-30 11:18:00,
2013-01-30 03:19:00,41.4,41.4,30.43,SSW,198,10.4,10.4,100,0.02,CLR,OVC,0.04,WeatherDisplay:10.37,2013-01-30 11:19:00,
2013-01-30 03:21:00,41.4,41.4,30.43,South,180,12.7,12.7,100,0.02,CLR,OVC,0.04,WeatherDisplay:10.37,2013-01-30 11:21:00,
2013-01-30 03:22:00,41.4,41.4,30.43,SSW,213,12.7,12.7,100,0.02,CLR,OVC,0.05,WeatherDisplay:10.37,2013-01-30 11:22:00,
2013-01-30 03:23:00,41.4,41.4,30.43,SW,225,9.2,9.2,100,0.03,RA,OVC,0.05,WeatherDisplay:10.37,2013-01-30 11:23:00,
2013-01-30 03:24:00,41.4,41.4,30.43,South,183,8.1,8.1,100,0.03,RA,OVC,0.05,WeatherDisplay:10.37,2013-01-30 11:24:00,
2013-01-30 03:26:00,41.4,41.4,30.43,SSW,202,10.4,10.4,100,0.03,RA,OVC,0.05,WeatherDisplay:10.37,2013-01-30 11:26:00,
2013-01-30 03:27:00,41.4,41.4,30.43,SSW,192,6.9,6.9,100,0.03,RA,OVC,0.05,WeatherDisplay:10.37,2013-01-30 11:27:00,
2013-01-30 03:28:00,41.4,41.4,30.43,SSW,205,13.8,13.8,100,0.03,RA,OVC,0.05,WeatherDisplay:10.37,2013-01-30 11:28:00,
2013-01-30 03:29:00,41.4,41.4,30.43,SSW,213,11.5,11.5,100,0.03,RA,OVC,0.05,WeatherDisplay:10.37,2013-01-30 11:29:00,
2013-01-30 03:31:00,41.4,41.4,30.43,SSW,202,9.0,9.0,100,0.03,RA,OVC,0.05,WeatherDisplay:10.37,2013-01-30 11:31:00,
2013-01-30 03:32:00,41.4,41.4,30.43,SSW,202,10.4,10.4,100,0.03,RA,OVC,0.05,WeatherDisplay:10.37,2013-01-30 11:32:00,
2013-01-30 03:33:00,41.4,41.4,30.43,SSW,197,11.5,11.5,100,0.03,,OVC,0.05,WeatherDisplay:10.37,2013-01-30 11:33:00,
2013-01-30 03:35:00,41.4,41.4,30.43,SSE,167,9.2,9.2,100,0.02,,OVC,0.05,WeatherDisplay:10.37,2013-01-30 11:35:00,
2013-01-30 03:36:00,41.4,41.4,30.43,SSW,205,4.6,4.6,100,0.02,CLR,OVC,0.05,WeatherDisplay:10.37,2013-01-30 11:36:00,
2013-01-30 03:37:00,41.4,41.4,30.43,South,175,5.0,5.0,100,0.02,CLR,OVC,0.05,WeatherDisplay:10.37,2013-01-30 11:37:00,
2013-01-30 03:38:00,41.4,41.4,30.43,SSW,213,8.1,8.1,100,0.02,CLR,OVC,0.05,WeatherDisplay:10.37,2013-01-30 11:38:00,
2013-01-30 03:40:00,41.4,41.4,30.43,SSW,199,5.0,8.0,100,0.00,,OVC,0.05,WeatherDisplay:10.37,2013-01-30 11:40:00,
2013-01-30 03:41:00,41.4,41.4,30.43,SSW,201,8.1,8.1,100,0.02,,OVC,0.05,WeatherDisplay:10.37,2013-01-30 11:41:00,
2013-01-30 03:42:00,41.4,41.4,30.43,SSW,201,9.0,9.0,100,0.02,,OVC,0.05,WeatherDisplay:10.37,2013-01-30 11:42:00,
2013-01-30 03:43:00,41.4,41.4,30.43,SW,233,10.4,10.4,100,0.02,,OVC,0.05,WeatherDisplay:10.37,2013-01-30 11:43:00,
2013-01-30 03:45:00,41.4,41.4,30.43,SSW,202,13.8,13.8,100,0.02,CLR,OVC,0.05,WeatherDisplay:10.37,2013-01-30 11:45:00,
2013-01-30 03:46:00,41.4,41.4,30.43,SSW,210,8.1,8.1,100,0.02,CLR,OVC,0.05,WeatherDisplay:10.37,2013-01-30 11:46:00,
2013-01-30 03:47:00,41.4,41.4,30.43,SW,225,8.1,8.1,100,0.02,CLR,OVC,0.05,WeatherDisplay:10.37,2013-01-30 11:47:00,
2013-01-30 03:48:00,41.4,41.4,30.43,South,178,8.0,8.0,100,0.02,CLR,OVC,0.05,WeatherDisplay:10.37,2013-01-30 11:48:00,
2013-01-30 03:50:00,41.3,41.3,30.43,SSW,195,10.4,10.4,100,0.02,CLR,OVC,0.05,WeatherDisplay:10.37,2013-01-30 11:50:00,
2013-01-30 03:51:00,41.3,41.3,30.43,SSW,195,8.1,8.1,100,0.02,CLR,OVC,0.05,WeatherDisplay:10.37,2013-01-30 11:51:00,
2013-01-30 03:52:00,41.4,41.4,30.43,SW,217,9.2,9.2,100,0.02,CLR,OVC,0.05,WeatherDisplay:10.37,2013-01-30 11:52:00,
2013-01-30 03:53:00,41.4,41.4,30.42,South,186,9.2,9.2,100,0.02,CLR,OVC,0.05,WeatherDisplay:10.37,2013-01-30 11:53:00,
2013-01-30 03:55:00,41.3,41.3,30.42,SSW,212,10.0,10.0,100,0.01,CLR,OVC,0.05,WeatherDisplay:10.37,2013-01-30 11:55:00,
2013-01-30 03:56:00,41.3,41.3,30.43,South,180,10.4,10.4,100,0.01,CLR,OVC,0.05,WeatherDisplay:10.37,2013-01-30 11:56:00,
2013-01-30 03:57:00,41.3,41.3,30.43,South,182,8.1,8.1,100,0.01,CLR,OVC,0.05,WeatherDisplay:10.37,2013-01-30 11:57:00,
2013-01-30 03:58:00,41.3,41.3,30.43,SW,216,12.7,12.7,100,0.01,CLR,OVC,0.05,WeatherDisplay:10.37,2013-01-30 11:58:00,
2013-01-30 04:00:00,41.3,41.3,30.43,SW,217,6.9,6.9,100,0.01,CLR,OVC,0.05,WeatherDisplay:10.37,2013-01-30 12:00:00,
2013-01-30 04:01:00,41.3,41.3,30.43,South,186,6.0,6.0,100,0.01,CLR,OVC,0.05,WeatherDisplay:10.37,2013-01-30 12:01:00,
2013-01-30 04:02:00,41.3,41.3,30.43,South,184,8.1,8.1,100,0.01,CLR,OVC,0.05,WeatherDisplay:10.37,2013-01-30 12:02:00,
2013-01-30 04:03:00,41.3,41.3,30.43,SSW,207,9.0,9.0,100,0.01,CLR,OVC,0.05,WeatherDisplay:10.37,2013-01-30 12:03:00,
2013-01-30 04:05:00,41.3,41.3,30.43,SSW,210,8.1,8.1,100,0.01,CLR,OVC,0.05,WeatherDisplay:10.37,2013-01-30 12:05:00,
2013-01-30 04:06:00,41.3,41.3,30.43,South,182,8.1,8.1,100,0.01,CLR,OVC,0.05,WeatherDisplay:10.37,2013-01-30 12:06:00,
2013-01-30 04:08:00,41.3,41.3,30.43,SSW,194,9.0,9.0,100,0.01,,OVC,0.05,WeatherDisplay:10.37,2013-01-30 12:08:00,
2013-01-30 04:09:00,41.4,41.4,30.43,SW,222,5.8,5.8,100,0.01,,OVC,0.05,WeatherDisplay:10.37,2013-01-30 12:09:00,
2013-01-30 04:10:00,41.3,41.3,30.43,SW,228,4.6,4.6,100,0.01,,OVC,0.05,WeatherDisplay:10.37,2013-01-30 12:10:00,
2013-01-30 04:11:00,41.3,41.3,30.43,SW,222,3.5,3.5,100,0.01,,OVC,0.05,WeatherDisplay:10.37,2013-01-30 12:11:00,
2013-01-30 04:13:00,41.3,41.3,30.43,South,175,8.0,8.0,100,0.01,,OVC,0.05,WeatherDisplay:10.37,2013-01-30 12:13:00,
2013-01-30 04:14:00,41.3,41.3,30.43,SSW,195,10.4,10.4,100,0.01,,OVC,0.05,WeatherDisplay:10.37,2013-01-30 12:14:00,
2013-01-30 04:15:00,41.3,41.3,30.43,SSW,203,5.0,5.0,100,0.01,,OVC,0.05,WeatherDisplay:10.37,2013-01-30 12:15:00,
2013-01-30 04:16:00,41.4,41.4,30.43,SSW,208,5.8,5.8,100,0.01,,OVC,0.05,WeatherDisplay:10.37,2013-01-30 12:16:00,
2013-01-30 04:18:00,41.4,41.4,30.43,SSW,194,3.5,3.5,100,0.01,,OVC,0.05,WeatherDisplay:10.37,2013-01-30 12:18:00,
2013-01-30 04:19:00,41.4,41.4,30.43,SSE,159,6.0,6.0,100,0.01,,OVC,0.05,WeatherDisplay:10.37,2013-01-30 12:19:00,
2013-01-30 04:20:00,41.4,41.4,30.43,SSW,194,6.9,6.9,100,0.01,,OVC,0.05,WeatherDisplay:10.37,2013-01-30 12:20:00,
2013-01-30 04:22:00,41.4,41.4,30.43,South,185,6.9,6.9,100,0.01,,OVC,0.05,WeatherDisplay:10.37,2013-01-30 12:22:00,
2013-01-30 04:23:00,41.4,41.4,30.43,South,181,6.9,6.9,100,0.00,,OVC,0.05,WeatherDisplay:10.37,2013-01-30 12:23:00,
2013-01-30 04:24:00,41.4,41.4,30.43,South,178,6.9,6.9,100,0.00,,OVC,0.05,WeatherDisplay:10.37,2013-01-30 12:24:00,
2013-01-30 04:25:00,41.3,41.3,30.43,SSW,200,8.0,8.0,100,0.00,,OVC,0.05,WeatherDisplay:10.37,2013-01-30 12:25:00,
2013-01-30 04:27:00,41.3,41.3,30.43,SSW,204,4.6,4.6,100,0.00,,OVC,0.05,WeatherDisplay:10.37,2013-01-30 12:27:00,
2013-01-30 04:28:00,41.3,41.3,30.43,SSW,192,5.8,5.8,100,0.00,,OVC,0.05,WeatherDisplay:10.37,2013-01-30 12:28:00,
2013-01-30 04:29:00,41.3,41.3,30.43,SSW,192,5.8,5.8,100,0.00,,OVC,0.05,WeatherDisplay:10.37,2013-01-30 12:29:00,
2013-01-30 04:30:00,41.3,41.3,30.43,South,179,5.8,5.8,100,0.00,,OVC,0.05,WeatherDisplay:10.37,2013-01-30 12:30:00,
2013-01-30 04:32:00,41.3,41.3,30.43,SSW,211,6.9,6.9,100,0.00,,OVC,0.05,WeatherDisplay:10.37,2013-01-30 12:32:00,
2013-01-30 04:34:00,41.3,41.3,30.43,SSE,157,6.9,6.9,100,0.00,,OVC,0.05,WeatherDisplay:10.37,2013-01-30 12:34:00,
2013-01-30 04:35:00,41.3,41.3,30.43,SSE,157,5.8,5.8,100,0.00,,OVC,0.05,WeatherDisplay:10.37,2013-01-30 12:35:00,
2013-01-30 04:37:00,41.3,41.3,30.43,South,169,6.9,6.9,100,0.00,,OVC,0.05,WeatherDisplay:10.37,2013-01-30 12:37:00,
2013-01-30 04:39:00,41.3,41.3,30.43,SSW,205,6.9,6.9,100,0.00,,OVC,0.05,WeatherDisplay:10.37,2013-01-30 12:39:00,
2013-01-30 04:40:00,41.3,41.3,30.43,SW,217,7.0,7.0,100,0.00,,OVC,0.05,WeatherDisplay:10.37,2013-01-30 12:40:00,
2013-01-30 04:42:00,41.3,41.3,30.43,SW,223,13.8,13.8,100,0.00,,OVC,0.05,WeatherDisplay:10.37,2013-01-30 12:42:00,
2013-01-30 04:44:00,41.3,41.3,30.43,SW,218,11.5,11.5,100,0.01,RA,OVC,0.06,WeatherDisplay:10.37,2013-01-30 12:44:00,
2013-01-30 04:45:00,41.3,41.3,30.43,SSW,198,9.2,9.2,100,0.01,RA,OVC,0.06,WeatherDisplay:10.37,2013-01-30 12:45:00,
2013-01-30 04:47:00,41.3,41.3,30.43,South,181,10.4,10.4,100,0.01,RA,OVC,0.06,WeatherDisplay:10.37,2013-01-30 12:47:00,
2013-01-30 04:49:00,41.3,41.3,30.43,SSW,213,6.0,6.0,100,0.01,RA,OVC,0.06,WeatherDisplay:10.37,2013-01-30 12:49:00,
2013-01-30 04:50:00,41.3,41.3,30.43,SSW,196,9.0,9.0,100,0.01,RA,OVC,0.06,WeatherDisplay:10.37,2013-01-30 12:50:00,
2013-01-30 04:52:00,41.3,41.3,30.43,SSW,209,9.2,9.2,100,0.01,RA,OVC,0.06,WeatherDisplay:10.37,2013-01-30 12:52:00,
2013-01-30 04:54:00,41.3,41.3,30.42,SSW,213,5.8,5.8,100,0.01,,OVC,0.06,WeatherDisplay:10.37,2013-01-30 12:54:00,
2013-01-30 04:55:00,41.3,41.3,30.42,SSW,213,5.8,5.8,100,0.01,,OVC,0.06,WeatherDisplay:10.37,2013-01-30 12:55:00,
2013-01-30 04:56:00,41.3,41.3,30.43,SE,144,8.0,8.0,100,0.01,CLR,OVC,0.06,WeatherDisplay:10.37,2013-01-30 12:56:00,
2013-01-30 04:57:00,41.3,41.3,30.43,SSW,205,6.9,6.9,100,0.01,CLR,OVC,0.06,WeatherDisplay:10.37,2013-01-30 12:57:00,
2013-01-30 04:59:00,41.3,41.3,30.43,SW,221,5.8,5.8,100,0.01,CLR,OVC,0.06,WeatherDisplay:10.37,2013-01-30 12:59:00,
2013-01-30 05:00:00,41.3,41.3,30.43,SW,215,6.0,6.0,100,0.01,CLR,OVC,0.06,WeatherDisplay:10.37,2013-01-30 13:00:00,
2013-01-30 05:01:00,41.3,41.3,30.43,SW,216,6.9,6.9,100,0.01,,OVC,0.06,WeatherDisplay:10.37,2013-01-30 13:01:00,
2013-01-30 05:02:00,41.3,41.3,30.43,SSW,208,3.5,3.5,100,0.01,,OVC,0.06,WeatherDisplay:10.37,2013-01-30 13:02:00,
2013-01-30 05:04:00,41.3,41.3,30.43,South,174,8.1,8.1,100,0.01,,OVC,0.06,WeatherDisplay:10.37,2013-01-30 13:04:00,
2013-01-30 05:05:00,41.3,41.3,30.43,South,174,8.1,8.1,100,0.01,,OVC,0.06,WeatherDisplay:10.37,2013-01-30 13:05:00,
2013-01-30 05:06:00,41.3,41.3,30.43,South,191,11.5,11.5,100,0.01,,OVC,0.06,WeatherDisplay:10.37,2013-01-30 13:06:00,
2013-01-30 05:07:00,41.3,41.3,30.43,SW,222,11.5,11.5,100,0.01,,OVC,0.06,WeatherDisplay:10.37,2013-01-30 13:07:00,
2013-01-30 05:09:00,41.3,41.3,30.43,SSW,208,10.4,10.4,100,0.01,CLR,OVC,0.06,WeatherDisplay:10.37,2013-01-30 13:09:00,
2013-01-30 05:10:00,41.2,41.2,30.43,SW,218,6.9,6.9,100,0.01,,OVC,0.06,WeatherDisplay:10.37,2013-01-30 13:10:00,
2013-01-30 05:11:00,41.2,41.2,30.43,SSW,206,12.7,12.7,100,0.01,CLR,OVC,0.06,WeatherDisplay:10.37,2013-01-30 13:11:00,
2013-01-30 05:12:00,41.2,41.2,30.43,SW,221,10.4,10.4,100,0.01,CLR,OVC,0.06,WeatherDisplay:10.37,2013-01-30 13:12:00,
2013-01-30 05:14:00,41.3,41.3,30.43,South,178,11.5,11.5,100,0.01,CLR,OVC,0.07,WeatherDisplay:10.37,2013-01-30 13:14:00,
2013-01-30 05:15:00,41.3,41.3,30.43,South,188,11.5,11.5,100,0.02,RA,OVC,0.07,WeatherDisplay:10.37,2013-01-30 13:15:00,
2013-01-30 05:16:00,41.3,41.3,30.43,South,175,12.7,12.7,100,0.02,RA,OVC,0.07,WeatherDisplay:10.37,2013-01-30 13:16:00,
2013-01-30 05:17:00,41.3,41.3,30.43,SSW,206,11.5,11.5,100,0.02,RA,OVC,0.07,WeatherDisplay:10.37,2013-01-30 13:17:00,
2013-01-30 05:20:00,41.3,41.3,30.43,SSW,193,6.9,6.9,100,0.02,RA,OVC,0.07,WeatherDisplay:10.37,2013-01-30 13:20:00,
2013-01-30 05:21:00,41.2,41.2,30.43,SW,216,9.2,9.2,100,0.02,RA,OVC,0.07,WeatherDisplay:10.37,2013-01-30 13:21:00,
2013-01-30 05:22:00,41.3,41.3,30.43,SW,216,7.0,7.0,100,0.02,RA,OVC,0.07,WeatherDisplay:10.37,2013-01-30 13:22:00,
2013-01-30 05:25:00,41.2,41.2,30.43,SW,215,13.8,13.8,100,0.02,RA,OVC,0.07,WeatherDisplay:10.37,2013-01-30 13:25:00,
2013-01-30 05:26:00,41.3,41.3,30.43,SSW,207,10.4,10.4,100,0.02,,OVC,0.07,WeatherDisplay:10.37,2013-01-30 13:26:00,
2013-01-30 05:28:00,41.2,41.2,30.43,SSE,154,12.7,12.7,100,0.02,CLR,OVC,0.07,WeatherDisplay:10.37,2013-01-30 13:28:00,
2013-01-30 05:30:00,41.2,41.2,30.43,South,182,5.0,5.0,100,0.02,CLR,OVC,0.07,WeatherDisplay:10.37,2013-01-30 13:30:00,
2013-01-30 05:31:00,41.2,41.2,30.43,SSW,193,8.0,8.0,100,0.02,CLR,OVC,0.07,WeatherDisplay:10.37,2013-01-30 13:31:00,
2013-01-30 05:33:00,41.2,41.2,30.43,SSW,200,9.2,9.2,100,0.02,CLR,OVC,0.07,WeatherDisplay:10.37,2013-01-30 13:33:00,
2013-01-30 05:35:00,41.3,41.3,30.43,SSW,205,11.5,11.5,100,0.02,CLR,OVC,0.07,WeatherDisplay:10.37,2013-01-30 13:35:00,
2013-01-30 05:36:00,41.3,41.3,30.43,SSE,149,10.0,10.0,100,0.02,CLR,OVC,0.07,WeatherDisplay:10.37,2013-01-30 13:36:00,
2013-01-30 05:38:00,41.2,41.2,30.43,South,190,9.2,9.2,100,0.02,CLR,OVC,0.07,WeatherDisplay:10.37,2013-01-30 13:38:00,
2013-01-30 05:40:00,41.2,41.2,30.43,SSE,163,8.1,8.1,100,0.02,CLR,OVC,0.07,WeatherDisplay:10.37,2013-01-30 13:40:00,
2013-01-30 05:42:00,41.2,41.2,30.43,SSE,167,9.2,9.2,100,0.02,CLR,OVC,0.07,WeatherDisplay:10.37,2013-01-30 13:42:00,
2013-01-30 05:43:00,41.2,41.2,30.43,SW,219,9.2,9.2,100,0.01,CLR,OVC,0.07,WeatherDisplay:10.37,2013-01-30 13:43:00,
2013-01-30 05:45:00,41.3,41.3,30.43,SW,217,9.2,9.2,100,0.01,CLR,OVC,0.07,WeatherDisplay:10.37,2013-01-30 13:45:00,
2013-01-30 05:47:00,41.3,41.3,30.43,SW,224,10.4,10.4,100,0.01,CLR,OVC,0.07,WeatherDisplay:10.37,2013-01-30 13:47:00,
2013-01-30 05:48:00,41.3,41.3,30.43,South,190,10.4,10.4,100,0.01,CLR,OVC,0.07,WeatherDisplay:10.37,2013-01-30 13:48:00,
2013-01-30 05:50:00,41.2,41.2,30.43,SSW,206,8.1,8.1,100,0.01,CLR,OVC,0.07,WeatherDisplay:10.37,2013-01-30 13:50:00,
2013-01-30 05:52:00,41.2,41.2,30.43,SW,226,6.9,6.9,100,0.01,CLR,OVC,0.07,WeatherDisplay:10.37,2013-01-30 13:52:00,
2013-01-30 05:53:00,41.2,41.2,30.43,SW,225,11.5,11.5,100,0.01,CLR,OVC,0.07,WeatherDisplay:10.37,2013-01-30 13:53:00,
2013-01-30 05:55:00,41.2,41.2,30.43,SSW,194,15.0,15.0,100,0.01,CLR,OVC,0.07,WeatherDisplay:10.37,2013-01-30 13:55:00,
2013-01-30 05:57:00,41.2,41.2,30.43,South,182,11.5,11.5,100,0.01,CLR,OVC,0.07,WeatherDisplay:10.37,2013-01-30 13:57:00,
2013-01-30 05:58:00,41.2,41.2,30.43,South,175,9.2,9.2,100,0.01,CLR,OVC,0.08,WeatherDisplay:10.37,2013-01-30 13:58:00,
2013-01-30 06:00:00,41.2,41.2,30.43,SW,233,6.9,6.9,100,0.02,RA,OVC,0.08,WeatherDisplay:10.37,2013-01-30 14:00:00,
2013-01-30 06:01:00,41.3,41.3,30.43,SSW,198,12.7,12.7,100,0.02,RA,OVC,0.08,WeatherDisplay:10.37,2013-01-30 14:01:00,
2013-01-30 06:02:00,41.3,41.3,30.43,SSW,201,11.5,11.5,100,0.02,RA,OVC,0.08,WeatherDisplay:10.37,2013-01-30 14:02:00,
2013-01-30 06:03:00,41.2,41.2,30.43,South,185,12.7,12.7,100,0.02,RA,OVC,0.08,WeatherDisplay:10.37,2013-01-30 14:03:00,
2013-01-30 06:06:00,41.2,41.2,30.43,SSW,199,12.7,12.7,100,0.02,RA,OVC,0.08,WeatherDisplay:10.37,2013-01-30 14:06:00,
2013-01-30 06:07:00,41.2,41.2,30.43,South,182,11.5,11.5,100,0.02,RA,OVC,0.08,WeatherDisplay:10.37,2013-01-30 14:07:00,
2013-01-30 06:08:00,41.2,41.2,30.43,SSW,202,10.4,10.4,100,0.02,RA,OVC,0.08,WeatherDisplay:10.37,2013-01-30 14:08:00,
2013-01-30 06:11:00,41.2,41.2,30.42,SSE,155,16.1,16.1,100,0.02,CLR,OVC,0.08,WeatherDisplay:10.37,2013-01-30 14:11:00,
2013-01-30 06:13:00,41.2,41.2,30.43,SSW,211,11.5,11.5,100,0.02,CLR,OVC,0.08,WeatherDisplay:10.37,2013-01-30 14:13:00,
2013-01-30 06:16:00,41.2,41.2,30.42,South,189,8.1,8.1,100,0.01,CLR,OVC,0.08,WeatherDisplay:10.37,2013-01-30 14:16:00,
2013-01-30 06:18:00,41.2,41.2,30.43,South,191,8.1,8.1,100,0.01,CLR,OVC,0.08,WeatherDisplay:10.37,2013-01-30 14:18:00,
2013-01-30 06:21:00,41.2,41.2,30.42,South,184,6.9,6.9,100,0.02,RA,OVC,0.09,WeatherDisplay:10.37,2013-01-30 14:21:00,
2013-01-30 06:23:00,41.3,41.3,30.42,SW,221,11.5,11.5,100,0.02,RA,OVC,0.09,WeatherDisplay:10.37,2013-01-30 14:23:00,
2013-01-30 06:26:00,41.2,41.2,30.43,SSW,213,11.5,11.5,100,0.02,RA,OVC,0.09,WeatherDisplay:10.37,2013-01-30 14:26:00,
2013-01-30 06:28:00,41.2,41.2,30.43,SSW,197,11.5,11.5,100,0.02,RA,OVC,0.09,WeatherDisplay:10.37,2013-01-30 14:28:00,
2013-01-30 06:31:00,41.2,41.2,30.42,SSW,193,11.0,11.0,100,0.02,,OVC,0.09,WeatherDisplay:10.37,2013-01-30 14:31:00,
2013-01-30 06:33:00,41.2,41.2,30.42,SW,233,10.4,10.4,100,0.02,CLR,OVC,0.09,WeatherDisplay:10.37,2013-01-30 14:33:00,
2013-01-30 06:36:00,41.2,41.2,30.42,SW,217,8.1,8.1,100,0.02,CLR,OVC,0.09,WeatherDisplay:10.37,2013-01-30 14:36:00,
2013-01-30 06:38:00,41.2,41.2,30.43,SW,232,8.1,8.1,100,0.02,CLR,OVC,0.09,WeatherDisplay:10.37,2013-01-30 14:38:00,
2013-01-30 06:41:00,41.1,41.1,30.43,SW,221,8.1,8.1,100,0.02,CLR,OVC,0.09,WeatherDisplay:10.37,2013-01-30 14:41:00,
2013-01-30 06:43:00,41.2,41.2,30.43,SSW,213,8.1,8.1,100,0.02,,OVC,0.09,WeatherDisplay:10.37,2013-01-30 14:43:00,
2013-01-30 06:46:00,41.2,41.2,30.43,SSW,194,9.2,9.2,100,0.02,,OVC,0.09,WeatherDisplay:10.37,2013-01-30 14:46:00,
2013-01-30 06:48:00,41.2,41.2,30.43,SSW,203,11.5,11.5,100,0.02,,OVC,0.09,WeatherDisplay:10.37,2013-01-30 14:48:00,
2013-01-30 06:51:00,41.2,41.2,30.43,South,186,9.2,9.2,100,0.03,RA,OVC,0.10,WeatherDisplay:10.37,2013-01-30 14:51:00,
2013-01-30 06:53:00,41.2,41.2,30.43,SW,229,15.0,15.0,100,0.03,RA,OVC,0.10,WeatherDisplay:10.37,2013-01-30 14:53:00,
2013-01-30 06:56:00,41.2,41.2,30.43,SW,219,5.8,5.8,100,0.03,RA,OVC,0.10,WeatherDisplay:10.37,2013-01-30 14:56:00,
2013-01-30 06:57:00,41.2,41.2,30.43,SW,230,5.8,5.8,100,0.03,RA,OVC,0.10,WeatherDisplay:10.37,2013-01-30 14:57:00,
2013-01-30 06:58:00,41.2,41.2,30.43,South,182,6.9,6.9,100,0.03,RA,OVC,0.10,WeatherDisplay:10.37,2013-01-30 14:58:00,
2013-01-30 07:01:00,41.2,41.2,30.43,South,183,12.7,12.7,100,0.02,,OVC,0.10,WeatherDisplay:10.37,2013-01-30 15:01:00,
2013-01-30 07:02:00,41.1,41.1,30.43,South,187,12.0,12.0,100,0.02,CLR,OVC,0.10,WeatherDisplay:10.37,2013-01-30 15:02:00,
2013-01-30 07:04:00,41.2,41.2,30.43,South,169,12.7,12.7,100,0.02,CLR,OVC,0.10,WeatherDisplay:10.37,2013-01-30 15:04:00,
2013-01-30 07:07:00,41.2,41.2,30.43,SSW,213,6.9,6.9,100,0.02,CLR,OVC,0.10,WeatherDisplay:10.37,2013-01-30 15:07:00,
2013-01-30 07:09:00,41.2,41.2,30.43,SW,218,13.8,13.8,100,0.03,RA,OVC,0.11,WeatherDisplay:10.37,2013-01-30 15:09:00,
2013-01-30 07:12:00,41.2,41.2,30.43,SSW,200,10.4,10.4,100,0.03,RA,OVC,0.11,WeatherDisplay:10.37,2013-01-30 15:12:00,
2013-01-30 07:14:00,41.2,41.2,30.43,South,177,10.0,10.0,100,0.03,RA,OVC,0.11,WeatherDisplay:10.37,2013-01-30 15:14:00,
2013-01-30 07:17:00,41.1,41.1,30.43,South,189,7.0,7.0,100,0.03,RA,OVC,0.11,WeatherDisplay:10.37,2013-01-30 15:17:00,
2013-01-30 07:19:00,41.2,41.2,30.43,SSW,213,8.1,8.1,100,0.03,,OVC,0.11,WeatherDisplay:10.37,2013-01-30 15:19:00,
2013-01-30 07:22:00,41.1,41.1,30.43,SW,220,5.8,5.8,100,0.02,CLR,OVC,0.11,WeatherDisplay:10.37,2013-01-30 15:22:00,
2013-01-30 07:24:00,41.2,41.2,30.43,South,179,12.7,12.7,100,0.02,CLR,OVC,0.11,WeatherDisplay:10.37,2013-01-30 15:24:00,
2013-01-30 07:27:00,41.1,41.1,30.43,SSW,200,11.5,11.5,100,0.02,CLR,OVC,0.11,WeatherDisplay:10.37,2013-01-30 15:27:00,
2013-01-30 07:29:00,41.1,41.1,30.43,SW,229,5.8,5.8,100,0.03,RA,OVC,0.12,WeatherDisplay:10.37,2013-01-30 15:29:00,
2013-01-30 07:32:00,41.2,41.2,30.43,SSW,196,5.8,5.8,100,0.03,RA,OVC,0.12,WeatherDisplay:10.37,2013-01-30 15:32:00,
2013-01-30 07:34:00,41.2,41.2,30.43,South,181,6.9,6.9,100,0.03,RA,OVC,0.12,WeatherDisplay:10.37,2013-01-30 15:34:00,
2013-01-30 07:37:00,41.2,41.2,30.44,SW,219,5.0,5.0,100,0.03,RA,OVC,0.12,WeatherDisplay:10.37,2013-01-30 15:37:00,
2013-01-30 07:39:00,41.2,41.2,30.43,South,169,9.0,9.0,100,0.03,,OVC,0.12,WeatherDisplay:10.37,2013-01-30 15:39:00,
2013-01-30 07:42:00,41.2,41.2,30.43,SSW,192,16.1,16.1,100,0.03,CLR,OVC,0.12,WeatherDisplay:10.37,2013-01-30 15:42:00,
2013-01-30 07:44:00,41.2,41.2,30.44,SSE,155,12.7,12.7,100,0.03,CLR,OVC,0.12,WeatherDisplay:10.37,2013-01-30 15:44:00,
2013-01-30 07:45:00,41.2,41.2,30.44,SSW,205,12.7,12.7,100,0.03,CLR,OVC,0.13,WeatherDisplay:10.37,2013-01-30 15:45:00,
2013-01-30 07:47:00,41.2,41.2,30.44,SSW,211,7.0,7.0,100,0.04,RA,OVC,0.13,WeatherDisplay:10.37,2013-01-30 15:47:00,
2013-01-30 07:48:00,41.2,41.2,30.44,SW,224,8.1,8.1,100,0.04,RA,OVC,0.13,WeatherDisplay:10.37,2013-01-30 15:48:00,
2013-01-30 07:49:00,41.2,41.2,30.44,South,175,9.0,9.0,100,0.04,RA,OVC,0.13,WeatherDisplay:10.37,2013-01-30 15:49:00,
2013-01-30 07:50:00,41.2,41.2,30.44,SSW,199,7.0,11.0,100,0.00,RA,OVC,0.13,WeatherDisplay:10.37,2013-01-30 15:50:00,
2013-01-30 07:52:00,41.2,41.2,30.44,South,190,10.4,10.4,100,0.03,RA,OVC,0.13,WeatherDisplay:10.37,2013-01-30 15:52:00,
2013-01-30 07:53:00,41.2,41.2,30.44,SW,218,6.9,6.9,100,0.03,RA,OVC,0.13,WeatherDisplay:10.37,2013-01-30 15:53:00,
2013-01-30 07:54:00,41.2,41.2,30.44,SW,219,5.8,5.8,100,0.03,RA,OVC,0.13,WeatherDisplay:10.37,2013-01-30 15:54:00,
2013-01-30 07:55:00,41.2,41.2,30.44,SW,221,3.5,3.5,100,0.03,,OVC,0.13,WeatherDisplay:10.37,2013-01-30 15:55:00,
2013-01-30 07:57:00,41.2,41.2,30.44,SW,220,6.9,6.9,100,0.03,CLR,OVC,0.13,WeatherDisplay:10.37,2013-01-30 15:57:00,
2013-01-30 07:58:00,41.2,41.2,30.44,SW,227,8.1,8.1,100,0.03,CLR,OVC,0.13,WeatherDisplay:10.37,2013-01-30 15:58:00,
2013-01-30 07:59:00,41.2,41.2,30.44,SSW,210,4.6,4.6,100,0.03,CLR,OVC,0.13,WeatherDisplay:10.37,2013-01-30 15:59:00,
2013-01-30 08:00:00,41.2,41.2,30.44,SSW,204,6.0,6.0,100,0.03,CLR,OVC,0.13,WeatherDisplay:10.37,2013-01-30 16:00:00,
2013-01-30 08:03:00,41.3,41.3,30.44,SW,215,9.2,9.2,100,0.03,CLR,OVC,0.13,WeatherDisplay:10.37,2013-01-30 16:03:00,
2013-01-30 08:04:00,41.3,41.3,30.44,SSE,160,5.8,5.8,100,0.03,CLR,OVC,0.13,WeatherDisplay:10.37,2013-01-30 16:04:00,
2013-01-30 08:05:00,41.2,41.2,30.44,SSW,205,4.6,4.8,100,0.03,CLR,OVC,0.13,WeatherDisplay:10.37,2013-01-30 16:05:00,
2013-01-30 08:08:00,41.2,41.2,30.44,SW,221,8.1,8.1,100,0.03,RA,OVC,0.14,WeatherDisplay:10.37,2013-01-30 16:08:00,
2013-01-30 08:09:00,41.2,41.2,30.44,SSW,209,6.9,6.9,100,0.03,RA,OVC,0.14,WeatherDisplay:10.37,2013-01-30 16:09:00,
2013-01-30 08:10:00,41.3,41.3,30.44,SE,144,8.0,8.0,100,0.03,RA,OVC,0.14,WeatherDisplay:10.37,2013-01-30 16:10:00,
2013-01-30 08:13:00,41.3,41.3,30.44,South,186,8.1,8.1,100,0.03,RA,OVC,0.14,WeatherDisplay:10.37,2013-01-30 16:13:00,
2013-01-30 08:14:00,41.3,41.3,30.44,South,188,8.1,8.1,100,0.03,RA,OVC,0.14,WeatherDisplay:10.37,2013-01-30 16:14:00,
2013-01-30 08:15:00,41.3,41.3,30.44,SW,221,10.0,10.0,100,0.03,RA,OVC,0.14,WeatherDisplay:10.37,2013-01-30 16:15:00,
2013-01-30 08:18:00,41.3,41.3,30.44,South,184,11.5,11.5,100,0.03,,OVC,0.14,WeatherDisplay:10.37,2013-01-30 16:18:00,
2013-01-30 08:19:00,41.3,41.3,30.44,SW,217,11.5,11.5,100,0.03,CLR,OVC,0.14,WeatherDisplay:10.37,2013-01-30 16:19:00,
2013-01-30 08:20:00,41.3,41.3,30.44,SSW,207,11.5,11.5,100,0.03,CLR,OVC,0.14,WeatherDisplay:10.37,2013-01-30 16:20:00,
2013-01-30 08:23:00,41.3,41.3,30.44,SW,219,5.8,5.8,100,0.03,CLR,OVC,0.14,WeatherDisplay:10.37,2013-01-30 16:23:00,
2013-01-30 08:24:00,41.3,41.3,30.44,SW,214,5.8,5.8,100,0.03,CLR,OVC,0.14,WeatherDisplay:10.37,2013-01-30 16:24:00,
2013-01-30 08:25:00,41.3,41.3,30.44,SW,223,7.0,7.0,100,0.03,CLR,OVC,0.14,WeatherDisplay:10.37,2013-01-30 16:25:00,
2013-01-30 08:28:00,41.3,41.3,30.45,SW,220,9.2,9.2,100,0.04,RA,OVC,0.15,WeatherDisplay:10.37,2013-01-30 16:28:00,
2013-01-30 08:29:00,41.3,41.3,30.45,SSW,200,12.0,12.0,100,0.04,RA,OVC,0.15,WeatherDisplay:10.37,2013-01-30 16:29:00,
2013-01-30 08:30:00,41.3,41.3,30.44,SSW,210,13.8,13.8,100,0.03,RA,OVC,0.15,WeatherDisplay:10.37,2013-01-30 16:30:00,
2013-01-30 08:34:00,41.3,41.3,30.45,SSW,210,5.8,5.8,100,0.03,RA,OVC,0.15,WeatherDisplay:10.37,2013-01-30 16:34:00,
2013-01-30 08:35:00,41.3,41.3,30.44,SSW,211,4.6,4.6,100,0.03,RA,OVC,0.15,WeatherDisplay:10.37,2013-01-30 16:35:00,
2013-01-30 08:39:00,41.3,41.3,30.45,SSW,202,9.2,9.5,100,0.03,,OVC,0.15,WeatherDisplay:10.37,2013-01-30 16:39:00,
2013-01-30 08:40:00,41.3,41.3,30.45,SW,225,12.7,12.7,100,0.03,CLR,OVC,0.15,WeatherDisplay:10.37,2013-01-30 16:40:00,
2013-01-30 08:44:00,41.4,41.4,30.45,SW,227,4.0,4.0,100,0.03,CLR,OVC,0.15,WeatherDisplay:10.37,2013-01-30 16:44:00,
2013-01-30 08:45:00,41.4,41.4,30.45,SW,218,3.5,4.1,100,0.03,CLR,OVC,0.15,WeatherDisplay:10.37,2013-01-30 16:45:00,
2013-01-30 08:49:00,41.4,41.4,30.45,SW,223,11.5,11.5,100,0.02,CLR,OVC,0.15,WeatherDisplay:10.37,2013-01-30 16:49:00,
2013-01-30 08:50:00,41.4,41.4,30.45,SSW,205,11.5,11.5,100,0.02,CLR,OVC,0.15,WeatherDisplay:10.37,2013-01-30 16:50:00,
2013-01-30 08:51:00,41.4,41.4,30.45,SW,214,6.9,6.9,100,0.02,CLR,OVC,0.15,WeatherDisplay:10.37,2013-01-30 16:51:00,
2013-01-30 08:54:00,41.4,41.4,30.45,SSW,199,9.2,9.2,100,0.02,CLR,OVC,0.15,WeatherDisplay:10.37,2013-01-30 16:54:00,
2013-01-30 08:55:00,41.4,41.4,30.45,SSW,212,6.9,6.9,100,0.02,CLR,OVC,0.15,WeatherDisplay:10.37,2013-01-30 16:55:00,
2013-01-30 08:56:00,41.4,41.4,30.45,South,182,4.6,4.6,100,0.02,CLR,OVC,0.15,WeatherDisplay:10.37,2013-01-30 16:56:00,
2013-01-30 08:59:00,41.4,41.4,30.45,SW,228,6.9,6.9,100,0.02,CLR,OVC,0.15,WeatherDisplay:10.37,2013-01-30 16:59:00,
2013-01-30 09:00:00,41.4,41.4,30.45,SW,224,5.8,5.8,100,0.02,CLR,OVC,0.15,WeatherDisplay:10.37,2013-01-30 17:00:00,
2013-01-30 09:01:00,41.4,41.4,30.45,SSW,195,12.0,12.0,100,0.03,RA,OVC,0.16,WeatherDisplay:10.37,2013-01-30 17:01:00,
2013-01-30 09:04:00,41.4,41.4,30.45,SE,132,4.6,4.6,100,0.03,RA,OVC,0.16,WeatherDisplay:10.37,2013-01-30 17:04:00,
2013-01-30 09:05:00,41.4,41.4,30.45,South,178,4.6,4.6,100,0.03,RA,OVC,0.16,WeatherDisplay:10.37,2013-01-30 17:05:00,
2013-01-30 09:06:00,41.4,41.4,30.45,South,190,6.9,6.9,100,0.03,RA,OVC,0.16,WeatherDisplay:10.37,2013-01-30 17:06:00,
2013-01-30 09:09:00,41.4,41.4,30.45,SW,223,4.6,4.6,100,0.02,RA,OVC,0.16,WeatherDisplay:10.37,2013-01-30 17:09:00,
2013-01-30 09:10:00,41.4,41.4,30.45,SW,225,5.8,5.8,100,0.02,RA,OVC,0.16,WeatherDisplay:10.37,2013-01-30 17:10:00,
2013-01-30 09:11:00,41.5,41.5,30.45,SW,221,8.1,8.1,100,0.02,,OVC,0.16,WeatherDisplay:10.37,2013-01-30 17:11:00,
2013-01-30 09:14:00,41.4,41.4,30.45,SW,215,5.8,5.8,100,0.02,CLR,OVC,0.16,WeatherDisplay:10.37,2013-01-30 17:14:00,
2013-01-30 09:15:00,41.4,41.4,30.45,SSW,192,8.0,8.0,100,0.02,CLR,OVC,0.16,WeatherDisplay:10.37,2013-01-30 17:15:00,
2013-01-30 09:16:00,41.5,41.5,30.45,SW,227,10.4,10.4,100,0.02,CLR,OVC,0.16,WeatherDisplay:10.37,2013-01-30 17:16:00,
2013-01-30 09:19:00,41.5,41.5,30.45,SSW,198,10.4,10.4,100,0.02,CLR,OVC,0.16,WeatherDisplay:10.37,2013-01-30 17:19:00,
2013-01-30 09:20:00,41.5,41.5,30.45,South,175,10.4,10.4,100,0.02,CLR,OVC,0.16,WeatherDisplay:10.37,2013-01-30 17:20:00,
2013-01-30 09:21:00,41.4,41.4,30.45,SW,219,9.2,9.2,100,0.02,CLR,OVC,0.16,WeatherDisplay:10.37,2013-01-30 17:21:00,
2013-01-30 09:24:00,41.5,41.5,30.45,SW,218,13.8,13.8,100,0.02,CLR,OVC,0.16,WeatherDisplay:10.37,2013-01-30 17:24:00,
2013-01-30 09:25:00,41.5,41.5,30.45,SW,218,13.8,13.8,100,0.02,CLR,OVC,0.16,WeatherDisplay:10.37,2013-01-30 17:25:00,
2013-01-30 09:26:00,41.5,41.5,30.45,SSW,206,9.2,9.2,100,0.02,CLR,OVC,0.16,WeatherDisplay:10.37,2013-01-30 17:26:00,
2013-01-30 09:29:00,41.5,41.5,30.45,SW,215,3.5,3.5,100,0.02,RA,OVC,0.17,WeatherDisplay:10.37,2013-01-30 17:29:00,
2013-01-30 09:30:00,41.5,41.5,30.45,SSW,213,8.0,8.0,100,0.02,RA,OVC,0.17,WeatherDisplay:10.37,2013-01-30 17:30:00,
2013-01-30 09:31:00,41.5,41.5,30.45,SW,214,11.5,11.5,100,0.02,RA,OVC,0.17,WeatherDisplay:10.37,2013-01-30 17:31:00,
2013-01-30 09:34:00,41.5,41.5,30.45,SW,236,5.8,5.8,100,0.02,RA,OVC,0.17,WeatherDisplay:10.37,2013-01-30 17:34:00,
2013-01-30 09:36:00,41.5,41.5,30.45,South,188,9.2,9.2,100,0.02,RA,OVC,0.17,WeatherDisplay:10.37,2013-01-30 17:36:00,
2013-01-30 09:39:00,41.5,41.5,30.45,SSW,201,10.4,10.4,100,0.02,,OVC,0.17,WeatherDisplay:10.37,2013-01-30 17:39:00,
2013-01-30 09:41:00,41.5,41.5,30.45,SW,219,8.1,8.1,100,0.02,CLR,OVC,0.17,WeatherDisplay:10.37,2013-01-30 17:41:00,
2013-01-30 09:45:00,41.5,41.5,30.45,SW,228,6.9,6.9,100,0.02,CLR,OVC,0.17,WeatherDisplay:10.37,2013-01-30 17:45:00,
2013-01-30 09:46:00,41.5,41.5,30.46,SW,228,3.5,3.5,100,0.02,CLR,OVC,0.17,WeatherDisplay:10.37,2013-01-30 17:46:00,
2013-01-30 09:50:00,41.5,41.5,30.46,SSW,212,5.0,9.0,100,0.00,CLR,OVC,0.17,WeatherDisplay:10.37,2013-01-30 17:50:00,
2013-01-30 09:51:00,41.5,41.5,30.46,SSW,202,6.9,6.9,100,0.02,CLR,OVC,0.17,WeatherDisplay:10.37,2013-01-30 17:51:00,
2013-01-30 09:55:00,41.6,41.6,30.46,SSW,197,7.0,9.0,100,0.00,CLR,OVC,0.17,WeatherDisplay:10.37,2013-01-30 17:55:00,
2013-01-30 09:56:00,41.6,41.6,30.45,SSE,151,11.5,11.5,100,0.02,CLR,OVC,0.17,WeatherDisplay:10.37,2013-01-30 17:56:00,
2013-01-30 10:00:00,41.7,41.7,30.45,SSW,193,13.8,13.8,100,0.02,CLR,OVC,0.17,WeatherDisplay:10.37,2013-01-30 18:00:00,
2013-01-30 10:01:00,41.6,41.6,30.45,South,190,12.7,12.7,100,0.01,CLR,OVC,0.17,WeatherDisplay:10.37,2013-01-30 18:01:00,
2013-01-30 10:05:00,41.7,41.7,30.46,SSW,205,9.2,9.2,100,0.01,CLR,OVC,0.17,WeatherDisplay:10.37,2013-01-30 18:05:00,
2013-01-30 10:06:00,41.7,41.7,30.45,South,176,9.2,9.2,100,0.01,CLR,OVC,0.17,WeatherDisplay:10.37,2013-01-30 18:06:00,
2013-01-30 10:10:00,41.7,41.7,30.45,SSW,203,5.0,5.0,100,0.02,RA,OVC,0.18,WeatherDisplay:10.37,2013-01-30 18:10:00,
2013-01-30 10:11:00,41.7,41.7,30.45,SW,217,8.1,8.1,100,0.02,RA,OVC,0.18,WeatherDisplay:10.37,2013-01-30 18:11:00,
2013-01-30 10:12:00,41.7,41.7,30.46,SW,226,9.2,9.2,100,0.02,RA,OVC,0.18,WeatherDisplay:10.37,2013-01-30 18:12:00,
2013-01-30 10:16:00,41.7,41.7,30.46,SSW,200,6.9,6.9,100,0.02,RA,OVC,0.18,WeatherDisplay:10.37,2013-01-30 18:16:00,
2013-01-30 10:17:00,41.7,41.7,30.46,SW,224,8.1,8.1,100,0.02,RA,OVC,0.18,WeatherDisplay:10.37,2013-01-30 18:17:00,
2013-01-30 10:21:00,41.7,41.7,30.46,SSW,209,11.5,11.5,100,0.02,CLR,OVC,0.18,WeatherDisplay:10.37,2013-01-30 18:21:00,
2013-01-30 10:22:00,41.7,41.7,30.46,South,182,9.2,9.2,100,0.02,CLR,OVC,0.18,WeatherDisplay:10.37,2013-01-30 18:22:00,
2013-01-30 10:26:00,41.7,41.7,30.46,SW,217,4.6,4.6,100,0.02,CLR,OVC,0.18,WeatherDisplay:10.37,2013-01-30 18:26:00,
2013-01-30 10:27:00,41.7,41.7,30.46,SW,223,4.6,4.6,100,0.02,CLR,OVC,0.18,WeatherDisplay:10.37,2013-01-30 18:27:00,
2013-01-30 10:31:00,41.8,41.8,30.46,SW,224,4.0,4.0,100,0.01,CLR,OVC,0.19,WeatherDisplay:10.37,2013-01-30 18:31:00,
2013-01-30 10:32:00,41.8,41.8,30.46,SW,222,6.9,6.9,100,0.02,RA,OVC,0.19,WeatherDisplay:10.37,2013-01-30 18:32:00,
2013-01-30 10:33:00,41.7,41.7,30.46,SW,228,6.9,6.9,100,0.02,RA,OVC,0.19,WeatherDisplay:10.37,2013-01-30 18:33:00,
2013-01-30 10:36:00,41.8,41.8,30.46,SSW,196,8.1,8.1,100,0.02,RA,OVC,0.19,WeatherDisplay:10.37,2013-01-30 18:36:00,
2013-01-30 10:37:00,41.8,41.8,30.46,SSW,210,8.1,8.1,100,0.02,RA,OVC,0.19,WeatherDisplay:10.37,2013-01-30 18:37:00,
2013-01-30 10:38:00,41.8,41.8,30.46,SSW,210,8.1,8.1,100,0.02,RA,OVC,0.19,WeatherDisplay:10.37,2013-01-30 18:38:00,
2013-01-30 10:41:00,41.8,41.8,30.46,South,188,12.7,12.7,100,0.02,RA,OVC,0.19,WeatherDisplay:10.37,2013-01-30 18:41:00,
2013-01-30 10:42:00,41.8,41.8,30.46,South,175,11.5,11.5,100,0.02,,OVC,0.19,WeatherDisplay:10.37,2013-01-30 18:42:00,
2013-01-30 10:43:00,41.8,41.8,30.46,South,190,11.5,11.5,100,0.02,,OVC,0.19,WeatherDisplay:10.37,2013-01-30 18:43:00,
2013-01-30 10:46:00,41.9,41.9,30.46,SSW,212,5.8,5.8,100,0.02,CLR,OVC,0.19,WeatherDisplay:10.37,2013-01-30 18:46:00,
2013-01-30 10:47:00,41.9,41.9,30.46,SSW,212,5.8,5.8,100,0.02,CLR,OVC,0.19,WeatherDisplay:10.37,2013-01-30 18:47:00,
2013-01-30 10:48:00,41.9,41.9,30.46,SW,230,4.6,4.6,100,0.02,CLR,OVC,0.19,WeatherDisplay:10.37,2013-01-30 18:48:00,
2013-01-30 10:53:00,41.9,41.9,30.46,SSW,211,5.0,5.0,100,0.02,CLR,OVC,0.19,WeatherDisplay:10.37,2013-01-30 18:53:00,
2013-01-30 10:58:00,42.0,42.0,30.46,SW,220,5.8,5.8,100,0.02,CLR,OVC,0.19,WeatherDisplay:10.37,2013-01-30 18:58:00,
2013-01-30 11:03:00,42.0,42.0,30.46,East,96,9.2,9.2,100,0.02,CLR,OVC,0.19,WeatherDisplay:10.37,2013-01-30 19:03:00,
2013-01-30 11:04:00,42.0,42.0,30.46,SSE,158,9.2,9.2,100,0.02,CLR,OVC,0.19,WeatherDisplay:10.37,2013-01-30 19:04:00,
2013-01-30 11:08:00,42.1,42.1,30.46,South,191,8.0,8.0,100,0.02,RA,OVC,0.20,WeatherDisplay:10.37,2013-01-30 19:08:00,
2013-01-30 11:09:00,42.1,42.1,30.46,SSW,203,6.9,6.9,100,0.02,RA,OVC,0.20,WeatherDisplay:10.37,2013-01-30 19:09:00,
2013-01-30 11:14:00,42.1,42.1,30.46,SSW,196,6.0,6.9,100,0.02,RA,OVC,0.20,WeatherDisplay:10.37,2013-01-30 19:14:00,
2013-01-30 11:15:00,42.2,42.2,30.46,SSW,200,6.9,6.9,100,0.02,RA,OVC,0.20,WeatherDisplay:10.37,2013-01-30 19:15:00,
2013-01-30 11:19:00,42.2,42.2,30.46,SW,223,8.1,8.1,100,0.02,,OVC,0.20,WeatherDisplay:10.37,2013-01-30 19:19:00,
2013-01-30 11:20:00,42.2,42.2,30.46,SSW,206,9.2,9.2,100,0.02,CLR,OVC,0.20,WeatherDisplay:10.37,2013-01-30 19:20:00,
2013-01-30 11:24:00,42.2,42.2,30.46,SSW,207,8.1,8.1,100,0.02,CLR,OVC,0.20,WeatherDisplay:10.37,2013-01-30 19:24:00,
2013-01-30 11:25:00,42.3,42.3,30.46,SSW,210,8.1,8.1,100,0.02,CLR,OVC,0.20,WeatherDisplay:10.37,2013-01-30 19:25:00,
2013-01-30 11:26:00,42.3,42.3,30.46,SSW,213,8.1,8.1,100,0.02,CLR,OVC,0.20,WeatherDisplay:10.37,2013-01-30 19:26:00,
2013-01-30 11:29:00,42.3,42.3,30.45,South,172,10.4,10.4,100,0.02,CLR,OVC,0.20,WeatherDisplay:10.37,2013-01-30 19:29:00,
2013-01-30 11:30:00,42.3,42.3,30.46,SSW,211,5.8,5.8,100,0.02,CLR,OVC,0.20,WeatherDisplay:10.37,2013-01-30 19:30:00,
2013-01-30 11:31:00,42.3,42.3,30.46,SW,216,6.9,6.9,100,0.02,CLR,OVC,0.20,WeatherDisplay:10.37,2013-01-30 19:31:00,
2013-01-30 11:34:00,42.3,42.3,30.45,SW,229,7.0,7.0,100,0.01,CLR,OVC,0.20,WeatherDisplay:10.37,2013-01-30 19:34:00,
2013-01-30 11:35:00,42.3,42.3,30.46,SSW,208,8.1,8.1,100,0.01,CLR,OVC,0.20,WeatherDisplay:10.37,2013-01-30 19:35:00,
2013-01-30 11:36:00,42.3,42.3,30.45,SSW,198,6.9,6.9,100,0.01,CLR,OVC,0.20,WeatherDisplay:10.37,2013-01-30 19:36:00,
2013-01-30 11:39:00,42.4,42.4,30.45,South,178,6.9,6.9,100,0.01,CLR,OVC,0.20,WeatherDisplay:10.37,2013-01-30 19:39:00,
2013-01-30 11:40:00,42.4,42.4,30.45,South,179,6.9,6.9,100,0.01,CLR,OVC,0.20,WeatherDisplay:10.37,2013-01-30 19:40:00,
2013-01-30 11:41:00,42.4,42.4,30.45,SSW,193,8.1,8.1,100,0.01,CLR,OVC,0.20,WeatherDisplay:10.37,2013-01-30 19:41:00,
2013-01-30 11:44:00,42.4,42.4,30.45,SSW,199,6.9,6.9,100,0.01,CLR,OVC,0.20,WeatherDisplay:10.37,2013-01-30 19:44:00,
2013-01-30 11:45:00,42.4,42.4,30.45,SSW,199,6.0,12.0,100,0.00,CLR,OVC,0.20,WeatherDisplay:10.37,2013-01-30 19:45:00,
2013-01-30 11:46:00,42.4,42.4,30.45,SW,229,9.2,9.2,100,0.01,CLR,OVC,0.20,WeatherDisplay:10.37,2013-01-30 19:46:00,
2013-01-30 11:49:00,42.5,42.5,30.45,SW,219,6.9,6.9,100,0.01,CLR,OVC,0.20,WeatherDisplay:10.37,2013-01-30 19:49:00,
2013-01-30 11:50:00,42.5,42.5,30.45,SW,221,6.9,6.9,100,0.01,CLR,OVC,0.20,WeatherDisplay:10.37,2013-01-30 19:50:00,
2013-01-30 11:51:00,42.5,42.5,30.45,SSW,210,5.8,5.8,100,0.01,CLR,OVC,0.20,WeatherDisplay:10.37,2013-01-30 19:51:00,
2013-01-30 11:55:00,42.5,42.5,30.45,SSW,200,9.2,9.2,100,0.01,CLR,OVC,0.20,WeatherDisplay:10.37,2013-01-30 19:55:00,
2013-01-30 11:56:00,42.5,42.5,30.45,South,171,8.1,8.1,100,0.01,CLR,OVC,0.20,WeatherDisplay:10.37,2013-01-30 19:56:00,
2013-01-30 12:00:00,42.6,42.6,30.45,SSW,209,4.6,4.6,100,0.01,CLR,OVC,0.20,WeatherDisplay:10.37,2013-01-30 20:00:00,
2013-01-30 12:02:00,42.6,42.6,30.45,SSW,211,9.2,9.2,100,0.01,CLR,OVC,0.20,WeatherDisplay:10.37,2013-01-30 20:02:00,
2013-01-30 12:05:00,42.7,42.7,30.45,SW,219,6.0,6.0,100,0.01,CLR,OVC,0.20,WeatherDisplay:10.37,2013-01-30 20:05:00,
2013-01-30 12:06:00,42.7,42.7,30.45,SW,214,5.8,6.0,100,0.01,CLR,OVC,0.20,WeatherDisplay:10.37,2013-01-30 20:06:00,
2013-01-30 12:07:00,42.7,42.7,30.45,SSW,207,5.8,5.8,100,0.01,CLR,OVC,0.20,WeatherDisplay:10.37,2013-01-30 20:07:00,
2013-01-30 12:10:00,42.7,42.7,30.45,SSW,202,8.1,8.1,100,0.01,RA,OVC,0.21,WeatherDisplay:10.37,2013-01-30 20:10:00,
2013-01-30 12:11:00,42.7,42.7,30.45,SSW,202,8.1,8.1,100,0.01,RA,OVC,0.21,WeatherDisplay:10.37,2013-01-30 20:11:00,
2013-01-30 12:12:00,42.7,42.7,30.45,SSW,198,4.6,4.6,100,0.01,RA,OVC,0.21,WeatherDisplay:10.37,2013-01-30 20:12:00,
2013-01-30 12:15:00,42.8,42.8,30.45,SW,226,3.5,3.5,100,0.01,RA,OVC,0.21,WeatherDisplay:10.37,2013-01-30 20:15:00,
2013-01-30 12:16:00,42.8,42.8,30.45,SW,225,4.6,4.6,100,0.01,RA,OVC,0.21,WeatherDisplay:10.37,2013-01-30 20:16:00,
2013-01-30 12:17:00,42.8,42.8,30.45,SSW,208,4.6,4.6,100,0.01,RA,OVC,0.21,WeatherDisplay:10.37,2013-01-30 20:17:00,
2013-01-30 12:20:00,42.9,42.9,30.45,SSW,211,6.0,6.0,100,0.01,CLR,OVC,0.21,WeatherDisplay:10.37,2013-01-30 20:20:00,
2013-01-30 12:21:00,42.9,42.9,30.45,SW,214,5.8,5.8,100,0.01,CLR,OVC,0.21,WeatherDisplay:10.37,2013-01-30 20:21:00,
2013-01-30 12:22:00,42.9,42.9,30.45,South,190,4.6,4.6,100,0.01,CLR,OVC,0.21,WeatherDisplay:10.37,2013-01-30 20:22:00,
2013-01-30 12:25:00,42.9,42.9,30.44,SSW,213,5.8,5.8,100,0.01,CLR,OVC,0.21,WeatherDisplay:10.37,2013-01-30 20:25:00,
2013-01-30 12:26:00,43.0,43.0,30.44,SSW,213,4.6,4.6,100,0.01,CLR,OVC,0.21,WeatherDisplay:10.37,2013-01-30 20:26:00,
2013-01-30 12:27:00,43.0,43.0,30.44,SW,225,5.8,6.5,100,0.01,CLR,OVC,0.21,WeatherDisplay:10.37,2013-01-30 20:27:00,
2013-01-30 12:31:00,43.0,43.0,30.44,SW,214,5.8,6.8,100,0.01,CLR,OVC,0.21,WeatherDisplay:10.37,2013-01-30 20:31:00,
2013-01-30 12:33:00,43.0,43.0,30.44,SSW,203,4.6,4.6,100,0.01,CLR,OVC,0.21,WeatherDisplay:10.37,2013-01-30 20:33:00,
2013-01-30 12:36:00,43.1,43.1,30.44,SW,227,8.1,8.1,100,0.01,CLR,OVC,0.21,WeatherDisplay:10.37,2013-01-30 20:36:00,
2013-01-30 12:38:00,43.1,43.1,30.44,SW,229,3.5,3.5,100,0.01,CLR,OVC,0.21,WeatherDisplay:10.37,2013-01-30 20:38:00,
2013-01-30 12:41:00,43.2,43.2,30.44,SW,223,5.0,5.0,100,0.01,CLR,OVC,0.21,WeatherDisplay:10.37,2013-01-30 20:41:00,
2013-01-30 12:42:00,43.2,43.2,30.44,SW,216,5.8,5.8,100,0.01,CLR,OVC,0.21,WeatherDisplay:10.37,2013-01-30 20:42:00,
2013-01-30 12:43:00,43.3,43.3,30.44,SW,216,3.5,3.5,100,0.01,CLR,OVC,0.21,WeatherDisplay:10.37,2013-01-30 20:43:00,
2013-01-30 12:46:00,43.4,43.4,30.44,SW,216,4.6,4.6,100,0.01,CLR,OVC,0.21,WeatherDisplay:10.37,2013-01-30 20:46:00,
2013-01-30 12:47:00,43.4,43.4,30.44,SW,216,3.5,3.5,100,0.01,CLR,OVC,0.21,WeatherDisplay:10.37,2013-01-30 20:47:00,
2013-01-30 12:48:00,43.4,43.4,30.44,SW,217,3.5,3.5,100,0.01,CLR,OVC,0.21,WeatherDisplay:10.37,2013-01-30 20:48:00,
2013-01-30 12:51:00,43.5,43.5,30.44,SW,216,3.5,3.5,100,0.01,CLR,OVC,0.21,WeatherDisplay:10.37,2013-01-30 20:51:00,
2013-01-30 12:52:00,43.6,43.6,30.44,SW,216,4.0,4.0,100,0.01,CLR,OVC,0.21,WeatherDisplay:10.37,2013-01-30 20:52:00,
2013-01-30 12:53:00,43.6,43.6,30.44,SSW,213,5.0,5.0,100,0.01,CLR,OVC,0.21,WeatherDisplay:10.37,2013-01-30 20:53:00,
2013-01-30 12:56:00,43.7,43.7,30.44,SW,214,2.3,2.3,100,0.01,CLR,OVC,0.21,WeatherDisplay:10.37,2013-01-30 20:56:00,
2013-01-30 12:57:00,43.7,43.7,30.44,SW,214,3.5,3.5,100,0.01,CLR,OVC,0.21,WeatherDisplay:10.37,2013-01-30 20:57:00,
2013-01-30 12:58:00,43.8,43.8,30.44,SW,214,3.5,3.5,100,0.01,CLR,OVC,0.21,WeatherDisplay:10.37,2013-01-30 20:58:00,
2013-01-30 13:01:00,43.8,43.8,30.44,SW,214,5.0,5.0,100,0.01,CLR,OVC,0.21,WeatherDisplay:10.37,2013-01-30 21:01:00,
2013-01-30 13:02:00,43.8,43.8,30.44,SW,214,4.6,4.6,100,0.01,CLR,OVC,0.21,WeatherDisplay:10.37,2013-01-30 21:02:00,
2013-01-30 13:04:00,43.8,43.8,30.44,SW,214,3.5,3.5,100,0.01,CLR,OVC,0.21,WeatherDisplay:10.37,2013-01-30 21:04:00,
2013-01-30 13:06:00,43.9,43.9,30.44,SW,214,3.5,3.5,100,0.01,CLR,OVC,0.21,WeatherDisplay:10.37,2013-01-30 21:06:00,
2013-01-30 13:07:00,43.9,43.9,30.44,SW,214,3.5,3.5,100,0.01,CLR,OVC,0.21,WeatherDisplay:10.37,2013-01-30 21:07:00,
2013-01-30 13:09:00,43.9,43.9,30.44,SW,214,3.5,3.5,100,0.00,CLR,OVC,0.21,WeatherDisplay:10.37,2013-01-30 21:09:00,
2013-01-30 13:11:00,44.0,44.0,30.44,SW,214,3.5,3.5,100,0.00,,OVC,0.21,WeatherDisplay:10.37,2013-01-30 21:11:00,
2013-01-30 13:12:00,44.0,44.0,30.44,SW,214,2.3,2.3,100,0.00,,OVC,0.21,WeatherDisplay:10.37,2013-01-30 21:12:00,
2013-01-30 13:13:00,44.0,44.0,30.44,SW,214,2.3,2.3,100,0.00,,OVC,0.21,WeatherDisplay:10.37,2013-01-30 21:13:00,
2013-01-30 13:14:00,44.0,44.0,30.44,SW,214,3.5,3.5,100,0.00,,OVC,0.21,WeatherDisplay:10.37,2013-01-30 21:14:00,
2013-01-30 13:16:00,43.9,43.9,30.44,SW,214,3.5,3.5,100,0.00,,OVC,0.21,WeatherDisplay:10.37,2013-01-30 21:16:00,
2013-01-30 13:17:00,43.9,43.9,30.44,SW,214,4.0,4.0,100,0.00,,OVC,0.21,WeatherDisplay:10.37,2013-01-30 21:17:00,
2013-01-30 13:18:00,43.9,43.9,30.44,SW,214,4.6,4.6,100,0.00,,OVC,0.21,WeatherDisplay:10.37,2013-01-30 21:18:00,
2013-01-30 13:19:00,43.9,43.9,30.44,SW,214,3.5,3.5,100,0.00,,OVC,0.21,WeatherDisplay:10.37,2013-01-30 21:19:00,
2013-01-30 13:21:00,43.8,43.8,30.44,SW,214,4.6,4.6,100,0.00,,OVC,0.21,WeatherDisplay:10.37,2013-01-30 21:21:00,
2013-01-30 13:22:00,43.8,43.8,30.44,SW,214,3.5,3.5,100,0.00,,OVC,0.21,WeatherDisplay:10.37,2013-01-30 21:22:00,
2013-01-30 13:23:00,43.7,43.7,30.44,SW,214,3.5,3.5,100,0.00,,OVC,0.21,WeatherDisplay:10.37,2013-01-30 21:23:00,
2013-01-30 13:24:00,43.7,43.7,30.44,SW,214,2.3,0.0,100,0.00,,OVC,0.21,WeatherDisplay:10.37,2013-01-30 21:24:00,
2013-01-30 13:26:00,43.7,43.7,30.44,SW,214,2.3,2.3,100,0.00,,OVC,0.21,WeatherDisplay:10.37,2013-01-30 21:26:00,
2013-01-30 13:27:00,43.7,43.7,30.44,SW,214,3.0,3.0,100,0.00,,OVC,0.21,WeatherDisplay:10.37,2013-01-30 21:27:00,
2013-01-30 13:28:00,43.7,43.7,30.44,SW,214,3.5,3.5,100,0.00,,OVC,0.21,WeatherDisplay:10.37,2013-01-30 21:28:00,
2013-01-30 13:29:00,43.7,43.7,30.44,SW,214,3.5,3.5,100,0.00,,OVC,0.21,WeatherDisplay:10.37,2013-01-30 21:29:00,
2013-01-30 13:31:00,43.7,43.7,30.44,SW,214,3.5,3.5,100,0.00,,OVC,0.21,WeatherDisplay:10.37,2013-01-30 21:31:00,
2013-01-30 13:32:00,43.7,43.7,30.44,SW,214,3.5,3.5,100,0.00,,OVC,0.21,WeatherDisplay:10.37,2013-01-30 21:32:00,
2013-01-30 13:33:00,43.7,43.7,30.44,SW,214,3.5,3.5,100,0.00,,OVC,0.21,WeatherDisplay:10.37,2013-01-30 21:33:00,
2013-01-30 13:34:00,43.7,43.7,30.44,SW,214,3.5,3.5,100,0.00,,OVC,0.21,WeatherDisplay:10.37,2013-01-30 21:34:00,
2013-01-30 13:37:00,43.7,43.7,30.44,SW,214,4.0,4.0,100,0.00,,OVC,0.21,WeatherDisplay:10.37,2013-01-30 21:37:00,
2013-01-30 13:38:00,43.7,43.7,30.44,SW,214,3.5,3.5,100,0.00,,OVC,0.21,WeatherDisplay:10.37,2013-01-30 21:38:00,
2013-01-30 13:39:00,43.7,43.7,30.43,SW,214,3.5,3.5,100,0.00,,OVC,0.21,WeatherDisplay:10.37,2013-01-30 21:39:00,
2013-01-30 13:42:00,43.8,43.8,30.43,SW,214,3.5,3.5,100,0.00,,OVC,0.21,WeatherDisplay:10.37,2013-01-30 21:42:00,
2013-01-30 13:43:00,43.8,43.8,30.43,SW,214,4.0,4.0,100,0.00,,OVC,0.21,WeatherDisplay:10.37,2013-01-30 21:43:00,
2013-01-30 13:44:00,43.8,43.8,30.43,SW,214,4.6,4.6,100,0.00,,OVC,0.21,WeatherDisplay:10.37,2013-01-30 21:44:00,
2013-01-30 13:47:00,43.8,43.8,30.43,SW,214,3.5,3.5,100,0.00,,OVC,0.21,WeatherDisplay:10.37,2013-01-30 21:47:00,
2013-01-30 13:48:00,43.8,43.8,30.43,SW,214,3.5,3.5,100,0.00,,OVC,0.21,WeatherDisplay:10.37,2013-01-30 21:48:00,
2013-01-30 13:49:00,43.8,43.8,30.43,SW,214,1.1,1.1,100,0.00,,OVC,0.21,WeatherDisplay:10.37,2013-01-30 21:49:00,
2013-01-30 13:52:00,43.9,43.9,30.43,SW,214,0.0,0.0,100,0.00,,OVC,0.21,WeatherDisplay:10.37,2013-01-30 21:52:00,
2013-01-30 13:53:00,43.8,43.8,30.43,SW,214,2.0,2.0,100,0.00,,OVC,0.21,WeatherDisplay:10.37,2013-01-30 21:53:00,
2013-01-30 13:54:00,43.9,43.9,30.43,SW,214,3.0,3.0,100,0.00,,OVC,0.21,WeatherDisplay:10.37,2013-01-30 21:54:00,
2013-01-30 13:57:00,43.9,43.9,30.43,SW,214,2.3,2.3,100,0.00,,OVC,0.21,WeatherDisplay:10.37,2013-01-30 21:57:00,
2013-01-30 13:58:00,43.9,43.9,30.43,SW,214,1.1,1.1,100,0.00,,OVC,0.21,WeatherDisplay:10.37,2013-01-30 21:58:00,
2013-01-30 13:59:00,43.9,43.9,30.43,SW,214,3.5,3.5,100,0.00,,OVC,0.21,WeatherDisplay:10.37,2013-01-30 21:59:00,
2013-01-30 14:02:00,43.9,43.9,30.43,SW,214,3.5,3.5,100,0.00,,OVC,0.21,WeatherDisplay:10.37,2013-01-30 22:02:00,
2013-01-30 14:03:00,44.0,44.0,30.43,SW,214,3.5,3.5,100,0.00,,OVC,0.21,WeatherDisplay:10.37,2013-01-30 22:03:00,
2013-01-30 14:04:00,44.0,44.0,30.43,SW,214,2.3,0.0,100,0.00,,OVC,0.21,WeatherDisplay:10.37,2013-01-30 22:04:00,
2013-01-30 14:05:00,44.0,44.0,30.43,SW,214,1.1,0.0,100,0.00,,OVC,0.21,WeatherDisplay:10.37,2013-01-30 22:05:00,
2013-01-30 14:07:00,44.1,44.1,30.43,SW,214,3.5,3.5,100,0.00,,OVC,0.21,WeatherDisplay:10.37,2013-01-30 22:07:00,
2013-01-30 14:08:00,44.1,44.1,30.43,SW,214,3.5,3.5,100,0.00,,OVC,0.21,WeatherDisplay:10.37,2013-01-30 22:08:00,
2013-01-30 14:09:00,44.1,44.1,30.43,SW,214,3.5,3.5,100,0.00,,OVC,0.21,WeatherDisplay:10.37,2013-01-30 22:09:00,
2013-01-30 14:10:00,44.1,44.1,30.43,SW,214,0.0,0.0,100,0.00,,OVC,0.21,WeatherDisplay:10.37,2013-01-30 22:10:00,
2013-01-30 14:12:00,44.1,44.1,30.43,SW,214,0.0,0.0,100,0.00,,OVC,0.21,WeatherDisplay:10.37,2013-01-30 22:12:00,
2013-01-30 14:13:00,44.2,44.2,30.43,SW,214,3.5,3.5,100,0.00,,OVC,0.21,WeatherDisplay:10.37,2013-01-30 22:13:00,
2013-01-30 14:15:00,44.2,44.2,30.43,SW,214,3.5,3.5,100,0.00,,OVC,0.21,WeatherDisplay:10.37,2013-01-30 22:15:00,
2013-01-30 14:17:00,44.3,44.3,30.43,SW,214,3.5,3.5,100,0.00,,OVC,0.21,WeatherDisplay:10.37,2013-01-30 22:17:00,
2013-01-30 14:18:00,44.3,44.3,30.43,SW,214,3.5,3.5,100,0.00,,OVC,0.21,WeatherDisplay:10.37,2013-01-30 22:18:00,
2013-01-30 14:20:00,44.3,44.3,30.43,SW,214,4.0,4.0,100,0.00,,OVC,0.21,WeatherDisplay:10.37,2013-01-30 22:20:00,
2013-01-30 14:22:00,44.3,44.3,30.43,SW,214,3.5,3.5,100,0.00,,OVC,0.21,WeatherDisplay:10.37,2013-01-30 22:22:00,
2013-01-30 14:24:00,44.3,44.3,30.43,SW,214,3.5,3.5,100,0.00,,OVC,0.21,WeatherDisplay:10.37,2013-01-30 22:24:00,
2013-01-30 14:25:00,44.3,44.3,30.43,SW,214,3.5,3.5,100,0.00,,OVC,0.21,WeatherDisplay:10.37,2013-01-30 22:25:00,
2013-01-30 14:28:00,44.3,44.3,30.43,SW,214,3.5,3.5,100,0.00,,OVC,0.21,WeatherDisplay:10.37,2013-01-30 22:28:00,
2013-01-30 14:29:00,44.3,44.3,30.43,SW,214,3.5,0.0,100,0.00,,OVC,0.21,WeatherDisplay:10.37,2013-01-30 22:29:00,
2013-01-30 14:30:00,44.3,44.3,30.43,SW,214,2.3,2.3,100,0.00,,OVC,0.21,WeatherDisplay:10.37,2013-01-30 22:30:00,
2013-01-30 14:31:00,44.4,44.4,30.43,SW,214,2.3,2.3,100,0.00,,OVC,0.21,WeatherDisplay:10.37,2013-01-30 22:31:00,
2013-01-30 14:33:00,44.3,44.3,30.43,SW,214,3.5,3.5,100,0.00,,OVC,0.21,WeatherDisplay:10.37,2013-01-30 22:33:00,
2013-01-30 14:34:00,44.3,44.3,30.43,SW,214,3.5,3.5,100,0.00,,OVC,0.21,WeatherDisplay:10.37,2013-01-30 22:34:00,
2013-01-30 14:35:00,44.3,44.3,30.43,SW,214,3.5,3.5,100,0.00,,OVC,0.21,WeatherDisplay:10.37,2013-01-30 22:35:00,
2013-01-30 14:36:00,44.3,44.3,30.43,SW,214,3.5,3.5,100,0.00,,OVC,0.21,WeatherDisplay:10.37,2013-01-30 22:36:00,
2013-01-30 14:38:00,44.3,44.3,30.43,SW,214,3.5,3.5,100,0.00,,OVC,0.21,WeatherDisplay:10.37,2013-01-30 22:38:00,
2013-01-30 14:39:00,44.4,44.4,30.43,SW,214,3.5,3.5,100,0.00,,OVC,0.21,WeatherDisplay:10.37,2013-01-30 22:39:00,
2013-01-30 14:40:00,44.4,44.4,30.43,SW,214,3.5,3.5,100,0.00,,OVC,0.21,WeatherDisplay:10.37,2013-01-30 22:40:00,
2013-01-30 14:41:00,44.4,44.4,30.43,SW,214,3.5,3.5,100,0.00,,OVC,0.21,WeatherDisplay:10.37,2013-01-30 22:41:00,
2013-01-30 14:43:00,44.4,44.4,30.43,SW,214,3.5,3.5,100,0.00,,OVC,0.21,WeatherDisplay:10.37,2013-01-30 22:43:00,
2013-01-30 14:44:00,44.5,44.5,30.43,SW,214,3.5,3.5,100,0.00,,OVC,0.21,WeatherDisplay:10.37,2013-01-30 22:44:00,
2013-01-30 14:45:00,44.5,44.5,30.43,SW,214,2.3,2.3,100,0.00,,OVC,0.21,WeatherDisplay:10.37,2013-01-30 22:45:00,
2013-01-30 14:47:00,44.5,44.5,30.43,SW,214,3.5,3.5,100,0.00,,OVC,0.21,WeatherDisplay:10.37,2013-01-30 22:47:00,
2013-01-30 14:48:00,44.6,44.6,30.43,SW,214,3.5,3.5,100,0.00,,OVC,0.21,WeatherDisplay:10.37,2013-01-30 22:48:00,
2013-01-30 14:49:00,44.6,44.6,30.43,SW,214,3.0,3.0,100,0.00,,OVC,0.21,WeatherDisplay:10.37,2013-01-30 22:49:00,
2013-01-30 14:50:00,44.6,44.6,30.43,SW,214,3.5,3.5,100,0.00,,OVC,0.21,WeatherDisplay:10.37,2013-01-30 22:50:00,
2013-01-30 14:52:00,44.6,44.6,30.43,SW,214,3.5,3.5,100,0.00,,OVC,0.21,WeatherDisplay:10.37,2013-01-30 22:52:00,
2013-01-30 14:53:00,44.6,44.6,30.43,SW,214,3.5,3.5,100,0.00,,OVC,0.21,WeatherDisplay:10.37,2013-01-30 22:53:00,
2013-01-30 14:54:00,44.6,44.6,30.43,SW,214,3.5,3.5,100,0.00,,OVC,0.21,WeatherDisplay:10.37,2013-01-30 22:54:00,
2013-01-30 14:55:00,44.6,44.6,30.43,SW,214,4.0,4.0,100,0.00,,OVC,0.21,WeatherDisplay:10.37,2013-01-30 22:55:00,
2013-01-30 14:57:00,44.6,44.6,30.43,SW,214,2.3,2.3,100,0.00,,OVC,0.21,WeatherDisplay:10.37,2013-01-30 22:57:00,
2013-01-30 14:58:00,44.7,44.7,30.43,SW,214,1.1,0.0,100,0.00,,OVC,0.21,WeatherDisplay:10.37,2013-01-30 22:58:00,
2013-01-30 14:59:00,44.7,44.7,30.43,SW,214,2.0,2.0,100,0.00,,OVC,0.21,WeatherDisplay:10.37,2013-01-30 22:59:00,
2013-01-30 15:00:00,44.7,44.7,30.43,SW,214,3.5,3.5,100,0.00,,OVC,0.21,WeatherDisplay:10.37,2013-01-30 23:00:00,
2013-01-30 15:02:00,44.7,44.7,30.43,SW,214,2.3,2.3,100,0.00,,OVC,0.21,WeatherDisplay:10.37,2013-01-30 23:02:00,
2013-01-30 15:03:00,44.7,44.7,30.43,SW,214,2.3,2.3,100,0.00,,OVC,0.21,WeatherDisplay:10.37,2013-01-30 23:03:00,
2013-01-30 15:04:00,44.8,44.8,30.43,SW,214,0.0,0.0,100,0.00,,OVC,0.21,WeatherDisplay:10.37,2013-01-30 23:04:00,
2013-01-30 15:05:00,44.8,44.8,30.43,SW,214,0.0,0.0,100,0.00,,OVC,0.21,WeatherDisplay:10.37,2013-01-30 23:05:00,
2013-01-30 15:07:00,44.8,44.8,30.43,SW,214,2.3,2.3,100,0.00,,OVC,0.21,WeatherDisplay:10.37,2013-01-30 23:07:00,
2013-01-30 15:08:00,44.8,44.8,30.43,SW,214,2.3,2.3,100,0.00,,OVC,0.21,WeatherDisplay:10.37,2013-01-30 23:08:00,
2013-01-30 15:09:00,44.8,44.8,30.43,SW,214,2.3,0.0,100,0.00,,OVC,0.21,WeatherDisplay:10.37,2013-01-30 23:09:00,
2013-01-30 15:11:00,44.8,44.8,30.43,SW,214,1.1,0.0,100,0.00,,OVC,0.21,WeatherDisplay:10.37,2013-01-30 23:11:00,
2013-01-30 15:13:00,44.9,44.9,30.43,SW,214,3.0,3.0,100,0.00,,OVC,0.21,WeatherDisplay:10.37,2013-01-30 23:13:00,
2013-01-30 15:14:00,44.9,44.9,30.43,SW,214,3.5,3.5,100,0.00,,OVC,0.21,WeatherDisplay:10.37,2013-01-30 23:14:00,
2013-01-30 15:16:00,44.9,44.9,30.43,SW,214,3.5,3.5,100,0.00,,OVC,0.21,WeatherDisplay:10.37,2013-01-30 23:16:00,
2013-01-30 15:18:00,44.8,44.8,30.43,SW,214,2.0,2.0,100,0.00,,OVC,0.21,WeatherDisplay:10.37,2013-01-30 23:18:00,
2013-01-30 15:20:00,44.8,44.8,30.42,SW,214,1.1,1.1,100,0.00,,OVC,0.21,WeatherDisplay:10.37,2013-01-30 23:20:00,
2013-01-30 15:21:00,44.8,44.8,30.42,SW,214,1.0,0.0,100,0.00,,OVC,0.21,WeatherDisplay:10.37,2013-01-30 23:21:00,
2013-01-30 15:23:00,44.8,44.8,30.43,SW,214,3.5,3.5,100,0.00,,OVC,0.21,WeatherDisplay:10.37,2013-01-30 23:23:00,
2013-01-30 15:25:00,44.7,44.7,30.43,SW,214,0.0,0.0,100,0.00,,OVC,0.21,WeatherDisplay:10.37,2013-01-30 23:25:00,
2013-01-30 15:26:00,44.7,44.7,30.43,SW,214,0.0,0.0,100,0.00,,OVC,0.21,WeatherDisplay:10.37,2013-01-30 23:26:00,
2013-01-30 15:28:00,44.7,44.7,30.43,SW,214,2.3,2.3,100,0.00,,OVC,0.21,WeatherDisplay:10.37,2013-01-30 23:28:00,
2013-01-30 15:30:00,44.6,44.6,30.43,SW,214,2.0,2.0,100,0.00,,OVC,0.21,WeatherDisplay:10.37,2013-01-30 23:30:00,
2013-01-30 15:31:00,44.6,44.6,30.43,SW,214,2.3,2.3,100,0.00,,OVC,0.21,WeatherDisplay:10.37,2013-01-30 23:31:00,
2013-01-30 15:33:00,44.7,44.7,30.43,SW,214,2.0,2.0,100,0.00,,OVC,0.21,WeatherDisplay:10.37,2013-01-30 23:33:00,
2013-01-30 15:35:00,44.7,44.7,30.43,SW,214,1.1,1.1,100,0.00,,OVC,0.21,WeatherDisplay:10.37,2013-01-30 23:35:00,
2013-01-30 15:36:00,44.7,44.7,30.43,SW,214,2.3,2.3,100,0.00,,OVC,0.21,WeatherDisplay:10.37,2013-01-30 23:36:00,
2013-01-30 15:38:00,44.7,44.7,30.43,SW,214,0.0,0.0,100,0.00,,OVC,0.21,WeatherDisplay:10.37,2013-01-30 23:38:00,
2013-01-30 15:40:00,44.7,44.7,30.43,SW,214,0.0,0.0,100,0.00,,OVC,0.21,WeatherDisplay:10.37,2013-01-30 23:40:00,
2013-01-30 15:41:00,44.7,44.7,30.43,SW,214,1.1,0.0,100,0.00,,OVC,0.21,WeatherDisplay:10.37,2013-01-30 23:41:00,
2013-01-30 15:43:00,44.7,44.7,30.43,SW,214,2.0,2.0,100,0.00,,OVC,0.21,WeatherDisplay:10.37,2013-01-30 23:43:00,
2013-01-30 15:45:00,44.8,44.8,30.43,SW,214,0.0,0.0,100,0.00,,OVC,0.21,WeatherDisplay:10.37,2013-01-30 23:45:00,
2013-01-30 15:47:00,44.8,44.8,30.43,SW,214,2.3,2.3,100,0.00,,OVC,0.21,WeatherDisplay:10.37,2013-01-30 23:47:00,
2013-01-30 15:48:00,44.8,44.8,30.42,SW,214,2.3,0.0,100,0.00,,OVC,0.21,WeatherDisplay:10.37,2013-01-30 23:48:00,
2013-01-30 15:50:00,44.8,44.8,30.42,SW,214,0.0,0.0,100,0.00,,OVC,0.21,WeatherDisplay:10.37,2013-01-30 23:50:00,
2013-01-30 15:52:00,44.9,44.9,30.42,SW,214,2.3,2.3,100,0.00,,OVC,0.21,WeatherDisplay:10.37,2013-01-30 23:52:00,
2013-01-30 15:54:00,44.9,44.9,30.42,SW,214,1.1,1.1,100,0.00,,OVC,0.21,WeatherDisplay:10.37,2013-01-30 23:54:00,
2013-01-30 15:55:00,44.9,44.9,30.43,SW,214,1.1,0.0,100,0.00,,OVC,0.21,WeatherDisplay:10.37,2013-01-30 23:55:00,
2013-01-30 15:57:00,44.9,44.9,30.42,SW,214,2.3,2.3,100,0.00,,OVC,0.21,WeatherDisplay:10.37,2013-01-30 23:57:00,
2013-01-30 15:59:00,45.0,45.0,30.42,SW,214,1.1,1.1,100,0.00,,OVC,0.21,WeatherDisplay:10.37,2013-01-30 23:59:00,
2013-01-30 16:00:00,45.0,45.0,30.42,SW,214,2.0,2.0,100,0.00,,OVC,0.21,WeatherDisplay:10.37,2013-01-31 00:00:00,
2013-01-30 16:02:00,45.1,45.1,30.42,SW,214,4.0,4.0,100,0.00,,OVC,0.21,WeatherDisplay:10.37,2013-01-31 00:02:00,
2013-01-30 16:04:00,45.2,45.2,30.42,SW,214,3.5,3.5,100,0.00,,OVC,0.21,WeatherDisplay:10.37,2013-01-31 00:04:00,
2013-01-30 16:05:00,45.2,45.2,30.43,SW,214,0.0,4.0,100,0.00,,OVC,0.21,WeatherDisplay:10.37,2013-01-31 00:05:00,
2013-01-30 16:07:00,45.3,45.3,30.43,SW,214,2.3,2.3,100,0.00,,OVC,0.21,WeatherDisplay:10.37,2013-01-31 00:07:00,
2013-01-30 16:09:00,45.4,45.4,30.43,SW,214,3.5,3.5,100,0.00,,OVC,0.21,WeatherDisplay:10.37,2013-01-31 00:09:00,
2013-01-30 16:10:00,45.4,45.4,30.43,SW,214,1.0,3.0,100,0.00,,OVC,0.21,WeatherDisplay:10.37,2013-01-31 00:10:00,
2013-01-30 16:11:00,45.4,45.4,30.43,SW,214,2.0,2.0,100,0.00,,OVC,0.21,WeatherDisplay:10.37,2013-01-31 00:11:00,
2013-01-30 16:12:00,45.5,45.5,30.43,SW,214,1.1,0.0,100,0.00,,OVC,0.21,WeatherDisplay:10.37,2013-01-31 00:12:00,
2013-01-30 16:14:00,45.5,45.5,30.43,SW,214,4.6,4.6,100,0.00,,OVC,0.21,WeatherDisplay:10.37,2013-01-31 00:14:00,
2013-01-30 16:15:00,45.5,45.5,30.43,SW,214,3.5,3.5,100,0.00,,OVC,0.21,WeatherDisplay:10.37,2013-01-31 00:15:00,
2013-01-30 16:16:00,45.5,45.5,30.42,SW,214,2.3,2.3,100,0.00,,OVC,0.21,WeatherDisplay:10.37,2013-01-31 00:16:00,
2013-01-30 16:17:00,45.6,45.6,30.42,SW,214,2.0,2.0,100,0.00,,OVC,0.21,WeatherDisplay:10.37,2013-01-31 00:17:00,
2013-01-30 16:19:00,45.6,45.6,30.42,SW,214,3.5,3.5,100,0.00,,OVC,0.21,WeatherDisplay:10.37,2013-01-31 00:19:00,
2013-01-30 16:20:00,45.6,45.6,30.42,SW,214,3.5,3.5,100,0.00,,OVC,0.21,WeatherDisplay:10.37,2013-01-31 00:20:00,
2013-01-30 16:21:00,45.6,45.6,30.42,SW,214,3.5,3.5,100,0.00,,OVC,0.21,WeatherDisplay:10.37,2013-01-31 00:21:00,
2013-01-30 16:23:00,45.6,45.6,30.42,SW,214,2.3,2.3,100,0.00,,OVC,0.21,WeatherDisplay:10.37,2013-01-31 00:23:00,
2013-01-30 16:24:00,45.6,45.6,30.42,SW,214,2.3,0.0,100,0.00,,OVC,0.21,WeatherDisplay:10.37,2013-01-31 00:24:00,
2013-01-30 16:25:00,45.6,45.6,30.42,SW,214,0.0,0.0,100,0.00,,OVC,0.21,WeatherDisplay:10.37,2013-01-31 00:25:00,
2013-01-30 16:26:00,45.6,45.6,30.42,SW,214,1.0,0.0,100,0.00,,OVC,0.21,WeatherDisplay:10.37,2013-01-31 00:26:00,
2013-01-30 16:28:00,45.6,45.6,30.42,SW,214,3.5,3.5,100,0.00,,OVC,0.21,WeatherDisplay:10.37,2013-01-31 00:28:00,
2013-01-30 16:30:00,45.6,45.6,30.42,SW,214,2.3,2.3,100,0.00,,OVC,0.21,WeatherDisplay:10.37,2013-01-31 00:30:00,
2013-01-30 16:31:00,45.6,45.6,30.42,SW,214,2.3,2.3,100,0.00,,OVC,0.21,WeatherDisplay:10.37,2013-01-31 00:31:00,
2013-01-30 16:33:00,45.6,45.6,30.42,SW,214,1.1,1.1,100,0.00,,OVC,0.21,WeatherDisplay:10.37,2013-01-31 00:33:00,
2013-01-30 16:35:00,45.6,45.6,30.43,SW,214,2.0,2.0,100,0.00,,OVC,0.21,WeatherDisplay:10.37,2013-01-31 00:35:00,
2013-01-30 16:36:00,45.6,45.6,30.43,SW,214,3.5,3.5,100,0.00,,OVC,0.21,WeatherDisplay:10.37,2013-01-31 00:36:00,
2013-01-30 16:38:00,45.7,45.7,30.43,SW,214,2.3,2.3,100,0.00,,OVC,0.21,WeatherDisplay:10.37,2013-01-31 00:38:00,
2013-01-30 16:40:00,45.7,45.7,30.43,SW,214,1.1,0.0,100,0.00,,OVC,0.21,WeatherDisplay:10.37,2013-01-31 00:40:00,
2013-01-30 16:41:00,45.7,45.7,30.42,SW,214,0.0,0.2,100,0.00,,OVC,0.21,WeatherDisplay:10.37,2013-01-31 00:41:00,
2013-01-30 16:43:00,45.7,45.7,30.42,SW,214,3.5,0.0,100,0.00,,OVC,0.21,WeatherDisplay:10.37,2013-01-31 00:43:00,
2013-01-30 16:45:00,45.7,45.7,30.43,SW,214,1.1,1.1,100,0.00,,OVC,0.21,WeatherDisplay:10.37,2013-01-31 00:45:00,
2013-01-30 16:46:00,45.7,45.7,30.43,SW,214,3.0,3.0,100,0.00,,OVC,0.21,WeatherDisplay:10.37,2013-01-31 00:46:00,
2013-01-30 16:48:00,45.7,45.7,30.42,SW,214,2.3,2.3,100,0.00,,OVC,0.21,WeatherDisplay:10.37,2013-01-31 00:48:00,
2013-01-30 16:50:00,45.7,45.7,30.43,SW,214,2.0,2.0,100,0.00,,OVC,0.21,WeatherDisplay:10.37,2013-01-31 00:50:00,
2013-01-30 16:51:00,45.7,45.7,30.43,SW,214,3.5,3.5,100,0.00,,OVC,0.21,WeatherDisplay:10.37,2013-01-31 00:51:00,
2013-01-30 16:52:00,45.7,45.7,30.42,SW,214,3.5,3.5,100,0.00,,OVC,0.21,WeatherDisplay:10.37,2013-01-31 00:52:00,
2013-01-30 16:53:00,45.7,45.7,30.42,SW,214,3.5,3.5,100,0.00,,OVC,0.21,WeatherDisplay:10.37,2013-01-31 00:53:00,
2013-01-30 16:55:00,45.7,45.7,30.42,SW,214,4.6,4.6,100,0.00,,OVC,0.21,WeatherDisplay:10.37,2013-01-31 00:55:00,
2013-01-30 16:56:00,45.8,45.8,30.42,SW,214,3.5,0.0,100,0.00,,OVC,0.21,WeatherDisplay:10.37,2013-01-31 00:56:00,
2013-01-30 16:57:00,45.7,45.7,30.42,SW,214,0.0,0.0,100,0.00,,OVC,0.21,WeatherDisplay:10.37,2013-01-31 00:57:00,
2013-01-30 16:58:00,45.7,45.7,30.42,SW,214,1.0,1.0,100,0.00,,OVC,0.21,WeatherDisplay:10.37,2013-01-31 00:58:00,
2013-01-30 17:00:00,45.8,45.8,30.42,SW,214,3.5,3.5,100,0.00,,OVC,0.21,WeatherDisplay:10.37,2013-01-31 01:00:00,
2013-01-30 17:01:00,45.8,45.8,30.42,SW,214,2.3,2.3,100,0.00,,OVC,0.21,WeatherDisplay:10.37,2013-01-31 01:01:00,
2013-01-30 17:02:00,45.7,45.7,30.42,SW,214,3.5,3.5,100,0.00,,OVC,0.21,WeatherDisplay:10.37,2013-01-31 01:02:00,
2013-01-30 17:04:00,45.8,45.8,30.42,SW,214,3.5,3.5,100,0.00,,OVC,0.21,WeatherDisplay:10.37,2013-01-31 01:04:00,
2013-01-30 17:05:00,45.7,45.7,30.43,SW,214,3.5,3.5,100,0.00,,OVC,0.21,WeatherDisplay:10.37,2013-01-31 01:05:00,
2013-01-30 17:06:00,45.7,45.7,30.42,SW,214,2.3,3.3,100,0.00,,OVC,0.21,WeatherDisplay:10.37,2013-01-31 01:06:00,
2013-01-30 17:07:00,45.7,45.7,30.42,SW,214,4.6,4.6,100,0.00,,OVC,0.21,WeatherDisplay:10.37,2013-01-31 01:07:00,
2013-01-30 17:09:00,45.7,45.7,30.42,SW,214,2.3,2.3,100,0.00,,OVC,0.21,WeatherDisplay:10.37,2013-01-31 01:09:00,
2013-01-30 17:10:00,45.7,45.7,30.42,SW,214,3.5,3.5,100,0.00,,OVC,0.21,WeatherDisplay:10.37,2013-01-31 01:10:00,
2013-01-30 17:12:00,45.8,45.8,30.42,SW,214,3.5,3.5,100,0.00,,OVC,0.21,WeatherDisplay:10.37,2013-01-31 01:12:00,
2013-01-30 17:14:00,45.7,45.7,30.42,SW,215,4.6,4.6,100,0.00,,OVC,0.21,WeatherDisplay:10.37,2013-01-31 01:14:00,
2013-01-30 17:15:00,45.7,45.7,30.42,SW,215,2.3,2.3,100,0.00,,OVC,0.21,WeatherDisplay:10.37,2013-01-31 01:15:00,
2013-01-30 17:17:00,45.7,45.7,30.43,SW,215,1.1,1.1,100,0.00,,OVC,0.21,WeatherDisplay:10.37,2013-01-31 01:17:00,
2013-01-30 17:19:00,45.7,45.7,30.43,SW,215,0.0,0.0,100,0.00,,OVC,0.21,WeatherDisplay:10.37,2013-01-31 01:19:00,
2013-01-30 17:20:00,45.7,45.7,30.43,SW,215,2.3,2.3,100,0.00,,OVC,0.21,WeatherDisplay:10.37,2013-01-31 01:20:00,
2013-01-30 17:22:00,45.7,45.7,30.43,SW,215,1.1,0.0,100,0.00,,OVC,0.21,WeatherDisplay:10.37,2013-01-31 01:22:00,
2013-01-30 17:24:00,45.7,45.7,30.43,SW,215,1.1,0.0,100,0.00,,OVC,0.21,WeatherDisplay:10.37,2013-01-31 01:24:00,
2013-01-30 17:26:00,45.7,45.7,30.43,SW,215,0.0,0.0,100,0.00,,OVC,0.21,WeatherDisplay:10.37,2013-01-31 01:26:00,
2013-01-30 17:27:00,45.7,45.7,30.43,SW,215,2.3,2.3,100,0.00,,OVC,0.21,WeatherDisplay:10.37,2013-01-31 01:27:00,
2013-01-30 17:28:00,45.7,45.7,30.43,SW,215,2.3,0.0,100,0.00,,OVC,0.21,WeatherDisplay:10.37,2013-01-31 01:28:00,
2013-01-30 17:29:00,45.7,45.7,30.43,SW,215,0.0,0.0,100,0.00,,OVC,0.21,WeatherDisplay:10.37,2013-01-31 01:29:00,
2013-01-30 17:31:00,45.6,45.6,30.43,SW,215,2.3,0.0,100,0.00,,OVC,0.21,WeatherDisplay:10.37,2013-01-31 01:31:00,
2013-01-30 17:32:00,45.6,45.6,30.43,SW,215,0.0,0.0,100,0.00,,OVC,0.21,WeatherDisplay:10.37,2013-01-31 01:32:00,
2013-01-30 17:33:00,45.7,45.7,30.43,SW,215,2.3,2.3,100,0.00,,OVC,0.21,WeatherDisplay:10.37,2013-01-31 01:33:00,
2013-01-30 17:34:00,45.7,45.7,30.43,SW,215,2.3,2.3,100,0.00,,OVC,0.21,WeatherDisplay:10.37,2013-01-31 01:34:00,
2013-01-30 17:36:00,45.6,45.6,30.43,SW,215,2.0,2.0,100,0.00,,OVC,0.21,WeatherDisplay:10.37,2013-01-31 01:36:00,
2013-01-30 17:37:00,45.6,45.6,30.43,SW,215,2.3,2.3,100,0.00,,OVC,0.21,WeatherDisplay:10.37,2013-01-31 01:37:00,
2013-01-30 17:38:00,45.6,45.6,30.43,SW,215,3.5,0.0,100,0.00,,OVC,0.21,WeatherDisplay:10.37,2013-01-31 01:38:00,
2013-01-30 17:39:00,45.6,45.6,30.43,SW,215,3.5,3.5,100,0.00,,OVC,0.21,WeatherDisplay:10.37,2013-01-31 01:39:00,
2013-01-30 17:41:00,45.6,45.6,30.43,SW,215,2.3,2.3,100,0.00,,OVC,0.21,WeatherDisplay:10.37,2013-01-31 01:41:00,
2013-01-30 17:42:00,45.6,45.6,30.43,SW,215,2.3,2.3,100,0.00,,OVC,0.21,WeatherDisplay:10.37,2013-01-31 01:42:00,
2013-01-30 17:43:00,45.6,45.6,30.43,SW,215,2.0,2.0,100,0.00,,OVC,0.21,WeatherDisplay:10.37,2013-01-31 01:43:00,
2013-01-30 17:44:00,45.6,45.6,30.43,SW,215,3.5,3.5,100,0.00,,OVC,0.21,WeatherDisplay:10.37,2013-01-31 01:44:00,
2013-01-30 17:46:00,45.6,45.6,30.43,SW,215,3.5,3.5,100,0.00,,OVC,0.21,WeatherDisplay:10.37,2013-01-31 01:46:00,
2013-01-30 17:47:00,45.6,45.6,30.42,SW,216,3.5,3.5,100,0.00,,OVC,0.21,WeatherDisplay:10.37,2013-01-31 01:47:00,
2013-01-30 17:48:00,45.6,45.6,30.42,SW,216,3.5,3.5,100,0.00,,OVC,0.21,WeatherDisplay:10.37,2013-01-31 01:48:00,
2013-01-30 17:49:00,45.6,45.6,30.42,SW,220,3.5,3.5,100,0.00,,OVC,0.21,WeatherDisplay:10.37,2013-01-31 01:49:00,
2013-01-30 17:51:00,45.6,45.6,30.42,SW,220,3.5,3.5,100,0.00,,OVC,0.21,WeatherDisplay:10.37,2013-01-31 01:51:00,
2013-01-30 17:52:00,45.6,45.6,30.42,SW,220,1.1,1.1,100,0.00,,OVC,0.21,WeatherDisplay:10.37,2013-01-31 01:52:00,
2013-01-30 17:53:00,45.6,45.6,30.42,SW,220,1.1,1.1,100,0.00,,OVC,0.21,WeatherDisplay:10.37,2013-01-31 01:53:00,
2013-01-30 17:54:00,45.6,45.6,30.42,SW,220,1.1,1.1,100,0.00,,OVC,0.21,WeatherDisplay:10.37,2013-01-31 01:54:00,
2013-01-30 17:56:00,45.6,45.6,30.42,SW,220,3.5,3.5,100,0.00,,OVC,0.21,WeatherDisplay:10.37,2013-01-31 01:56:00,
2013-01-30 17:58:00,45.5,45.5,30.42,SW,220,3.5,3.5,100,0.00,,OVC,0.21,WeatherDisplay:10.37,2013-01-31 01:58:00,
2013-01-30 17:59:00,45.5,45.5,30.42,SW,220,0.0,0.4,100,0.00,,OVC,0.21,WeatherDisplay:10.37,2013-01-31 01:59:00,
2013-01-30 18:01:00,45.5,45.5,30.42,SW,222,3.5,3.5,100,0.00,,OVC,0.21,WeatherDisplay:10.37,2013-01-31 02:01:00,
2013-01-30 18:03:00,45.5,45.5,30.43,SW,222,2.3,2.3,100,0.00,,OVC,0.21,WeatherDisplay:10.37,2013-01-31 02:03:00,
2013-01-30 18:04:00,45.5,45.5,30.42,SW,222,2.3,2.3,100,0.00,,OVC,0.21,WeatherDisplay:10.37,2013-01-31 02:04:00,
2013-01-30 18:06:00,45.5,45.5,30.42,SW,222,3.5,3.5,100,0.00,,OVC,0.21,WeatherDisplay:10.37,2013-01-31 02:06:00,
2013-01-30 18:08:00,45.5,45.5,30.42,SW,221,3.5,3.5,100,0.00,,OVC,0.21,WeatherDisplay:10.37,2013-01-31 02:08:00,
2013-01-30 18:09:00,45.5,45.5,30.42,SW,222,2.0,2.0,100,0.00,,OVC,0.21,WeatherDisplay:10.37,2013-01-31 02:09:00,
2013-01-30 18:12:00,45.5,45.5,30.42,SW,222,1.1,1.1,100,0.00,,OVC,0.21,WeatherDisplay:10.37,2013-01-31 02:12:00,
2013-01-30 18:13:00,45.5,45.5,30.42,SW,230,5.8,5.8,100,0.00,,OVC,0.21,WeatherDisplay:10.37,2013-01-31 02:13:00,
2013-01-30 18:14:00,45.4,45.4,30.42,SW,230,5.8,5.8,100,0.00,,OVC,0.21,WeatherDisplay:10.37,2013-01-31 02:14:00,
2013-01-30 18:17:00,45.5,45.5,30.42,SW,230,1.1,1.1,100,0.00,,OVC,0.21,WeatherDisplay:10.37,2013-01-31 02:17:00,
2013-01-30 18:18:00,45.4,45.4,30.42,SW,230,1.1,1.1,100,0.00,,OVC,0.21,WeatherDisplay:10.37,2013-01-31 02:18:00,
2013-01-30 18:19:00,45.5,45.5,30.42,SW,230,1.1,1.1,100,0.00,,OVC,0.21,WeatherDisplay:10.37,2013-01-31 02:19:00,
2013-01-30 18:20:00,45.4,45.4,30.42,SW,230,1.1,1.1,100,0.00,,OVC,0.21,WeatherDisplay:10.37,2013-01-31 02:20:00,
2013-01-30 18:22:00,45.4,45.4,30.43,SW,230,1.1,0.0,100,0.00,,OVC,0.21,WeatherDisplay:10.37,2013-01-31 02:22:00,
2013-01-30 18:24:00,45.4,45.4,30.42,SW,230,2.3,2.3,100,0.00,,OVC,0.21,WeatherDisplay:10.37,2013-01-31 02:24:00,
2013-01-30 18:25:00,45.4,45.4,30.43,SW,229,3.5,3.5,100,0.00,,OVC,0.21,WeatherDisplay:10.37,2013-01-31 02:25:00,
2013-01-30 18:27:00,45.4,45.4,30.43,SW,229,0.0,0.0,100,0.00,,OVC,0.21,WeatherDisplay:10.37,2013-01-31 02:27:00,
2013-01-30 18:29:00,45.4,45.4,30.42,SW,229,1.1,1.1,100,0.00,,OVC,0.21,WeatherDisplay:10.37,2013-01-31 02:29:00,
2013-01-30 18:30:00,45.4,45.4,30.42,SW,229,3.5,3.5,100,0.00,,OVC,0.21,WeatherDisplay:10.37,2013-01-31 02:30:00,
2013-01-30 18:32:00,45.4,45.4,30.43,SW,229,2.0,2.0,100,0.00,,OVC,0.21,WeatherDisplay:10.37,2013-01-31 02:32:00,
2013-01-30 18:34:00,45.4,45.4,30.42,SW,229,2.3,2.3,100,0.00,,OVC,0.21,WeatherDisplay:10.37,2013-01-31 02:34:00,
2013-01-30 18:35:00,45.4,45.4,30.43,SW,229,3.5,3.5,100,0.00,,OVC,0.21,WeatherDisplay:10.37,2013-01-31 02:35:00,
2013-01-30 18:37:00,45.4,45.4,30.43,SW,227,2.3,2.3,100,0.00,,OVC,0.21,WeatherDisplay:10.37,2013-01-31 02:37:00,
2013-01-30 18:39:00,45.4,45.4,30.43,SW,227,2.3,2.3,100,0.00,,OVC,0.21,WeatherDisplay:10.37,2013-01-31 02:39:00,
2013-01-30 18:40:00,45.4,45.4,30.43,SW,227,1.1,1.1,100,0.00,,OVC,0.21,WeatherDisplay:10.37,2013-01-31 02:40:00,
2013-01-30 18:42:00,45.4,45.4,30.42,SW,227,3.5,3.5,100,0.00,,OVC,0.21,WeatherDisplay:10.37,2013-01-31 02:42:00,
2013-01-30 18:44:00,45.4,45.4,30.43,SW,227,1.1,0.0,100,0.00,,OVC,0.21,WeatherDisplay:10.37,2013-01-31 02:44:00,
2013-01-30 18:45:00,45.4,45.4,30.43,SW,227,0.0,0.3,100,0.00,,OVC,0.21,WeatherDisplay:10.37,2013-01-31 02:45:00,
2013-01-30 18:47:00,45.4,45.4,30.43,SW,227,1.1,0.0,100,0.00,,OVC,0.21,WeatherDisplay:10.37,2013-01-31 02:47:00,
2013-01-30 18:49:00,45.4,45.4,30.43,SW,227,0.0,0.0,100,0.00,,OVC,0.21,WeatherDisplay:10.37,2013-01-31 02:49:00,
2013-01-30 18:50:00,45.4,45.4,30.43,SW,227,0.0,0.1,100,0.00,,OVC,0.21,WeatherDisplay:10.37,2013-01-31 02:50:00,
2013-01-30 18:52:00,45.3,45.3,30.43,SW,227,2.3,0.0,100,0.00,,OVC,0.21,WeatherDisplay:10.37,2013-01-31 02:52:00,
2013-01-30 18:54:00,45.3,45.3,30.42,SW,227,2.3,2.3,100,0.00,,OVC,0.21,WeatherDisplay:10.37,2013-01-31 02:54:00,
2013-01-30 18:55:00,45.3,45.3,30.42,SW,227,2.3,2.3,100,0.00,,OVC,0.21,WeatherDisplay:10.37,2013-01-31 02:55:00,
2013-01-30 18:57:00,45.3,45.3,30.42,SW,227,0.0,0.0,100,0.00,,OVC,0.21,WeatherDisplay:10.37,2013-01-31 02:57:00,
2013-01-30 18:59:00,45.3,45.3,30.42,SW,227,1.1,1.1,100,0.00,,OVC,0.21,WeatherDisplay:10.37,2013-01-31 02:59:00,
2013-01-30 19:00:00,45.3,45.3,30.42,SW,227,1.1,1.1,100,0.00,,OVC,0.21,WeatherDisplay:10.37,2013-01-31 03:00:00,
2013-01-30 19:03:00,45.3,45.3,30.42,SW,227,0.0,0.0,100,0.00,,OVC,0.21,WeatherDisplay:10.37,2013-01-31 03:03:00,
2013-01-30 19:04:00,45.3,45.3,30.43,SW,227,3.0,3.0,100,0.00,,OVC,0.21,WeatherDisplay:10.37,2013-01-31 03:04:00,
2013-01-30 19:05:00,45.3,45.3,30.43,SW,227,3.5,3.5,100,0.00,,OVC,0.21,WeatherDisplay:10.37,2013-01-31 03:05:00,
2013-01-30 19:08:00,45.2,45.2,30.42,SW,227,3.5,3.5,100,0.00,,OVC,0.21,WeatherDisplay:10.37,2013-01-31 03:08:00,
2013-01-30 19:09:00,45.2,45.2,30.43,SW,227,3.5,3.5,100,0.00,,OVC,0.21,WeatherDisplay:10.37,2013-01-31 03:09:00,
2013-01-30 19:10:00,45.2,45.2,30.43,SW,227,3.5,3.5,100,0.00,,OVC,0.21,WeatherDisplay:10.37,2013-01-31 03:10:00,
2013-01-30 19:13:00,45.2,45.2,30.42,SW,223,4.6,4.6,100,0.00,,OVC,0.21,WeatherDisplay:10.37,2013-01-31 03:13:00,
2013-01-30 19:15:00,45.2,45.2,30.42,SW,223,0.0,0.0,100,0.00,,OVC,0.21,WeatherDisplay:10.37,2013-01-31 03:15:00,
2013-01-30 19:18:00,45.2,45.2,30.42,SW,223,3.5,0.0,100,0.00,,OVC,0.21,WeatherDisplay:10.37,2013-01-31 03:18:00,
2013-01-30 19:20:00,45.2,45.2,30.43,SW,223,1.1,1.1,100,0.00,,OVC,0.21,WeatherDisplay:10.37,2013-01-31 03:20:00,
2013-01-30 19:21:00,45.2,45.2,30.42,SW,223,0.0,0.0,100,0.00,,OVC,0.21,WeatherDisplay:10.37,2013-01-31 03:21:00,
2013-01-30 19:23:00,45.2,45.2,30.42,SW,223,0.0,0.0,100,0.00,,OVC,0.21,WeatherDisplay:10.37,2013-01-31 03:23:00,
2013-01-30 19:25:00,45.2,45.2,30.43,SW,223,4.6,4.6,100,0.00,,OVC,0.21,WeatherDisplay:10.37,2013-01-31 03:25:00,
2013-01-30 19:26:00,45.2,45.2,30.42,SW,223,1.1,0.0,100,0.00,,OVC,0.21,WeatherDisplay:10.37,2013-01-31 03:26:00,
2013-01-30 19:28:00,45.2,45.2,30.43,SW,223,3.0,3.0,100,0.00,,OVC,0.21,WeatherDisplay:10.37,2013-01-31 03:28:00,
2013-01-30 19:30:00,45.2,45.2,30.43,SW,223,3.5,3.5,100,0.00,,OVC,0.21,WeatherDisplay:10.37,2013-01-31 03:30:00,
2013-01-30 19:31:00,45.2,45.2,30.43,SW,223,1.1,0.0,100,0.00,,OVC,0.21,WeatherDisplay:10.37,2013-01-31 03:31:00,
2013-01-30 19:33:00,45.2,45.2,30.42,SW,223,3.5,3.5,100,0.00,,OVC,0.21,WeatherDisplay:10.37,2013-01-31 03:33:00,
2013-01-30 19:35:00,45.2,45.2,30.43,SW,223,1.1,1.1,100,0.00,,OVC,0.21,WeatherDisplay:10.37,2013-01-31 03:35:00,
2013-01-30 19:36:00,45.2,45.2,30.43,SW,223,1.1,0.0,100,0.00,,OVC,0.21,WeatherDisplay:10.37,2013-01-31 03:36:00,
2013-01-30 19:38:00,45.2,45.2,30.43,SW,223,1.1,1.1,100,0.00,,OVC,0.21,WeatherDisplay:10.37,2013-01-31 03:38:00,
2013-01-30 19:40:00,45.2,45.2,30.43,SW,223,3.5,0.0,100,0.00,,OVC,0.21,WeatherDisplay:10.37,2013-01-31 03:40:00,
2013-01-30 19:41:00,45.2,45.2,30.43,SW,223,0.0,0.0,100,0.00,,OVC,0.21,WeatherDisplay:10.37,2013-01-31 03:41:00,
2013-01-30 19:43:00,45.2,45.2,30.43,SW,223,0.0,0.4,100,0.00,,OVC,0.21,WeatherDisplay:10.37,2013-01-31 03:43:00,
2013-01-30 19:45:00,45.2,45.2,30.43,SW,223,0.0,0.0,100,0.00,,OVC,0.21,WeatherDisplay:10.37,2013-01-31 03:45:00,
2013-01-30 19:46:00,45.1,45.1,30.43,SW,223,0.0,0.0,100,0.00,,OVC,0.21,WeatherDisplay:10.37,2013-01-31 03:46:00,
2013-01-30 19:49:00,45.1,45.1,30.43,SW,223,1.1,1.1,100,0.00,,OVC,0.21,WeatherDisplay:10.37,2013-01-31 03:49:00,
2013-01-30 19:50:00,45.2,45.2,30.43,SW,223,3.5,3.5,100,0.00,,OVC,0.21,WeatherDisplay:10.37,2013-01-31 03:50:00,
2013-01-30 19:51:00,45.2,45.2,30.43,SW,223,3.5,3.5,100,0.00,,OVC,0.21,WeatherDisplay:10.37,2013-01-31 03:51:00,
2013-01-30 19:54:00,45.2,45.2,30.43,SW,223,0.0,0.0,100,0.00,,OVC,0.21,WeatherDisplay:10.37,2013-01-31 03:54:00,
2013-01-30 19:56:00,45.2,45.2,30.43,SW,222,3.5,3.5,100,0.00,,OVC,0.21,WeatherDisplay:10.37,2013-01-31 03:56:00,
2013-01-30 19:59:00,45.2,45.2,30.43,SW,222,2.3,2.3,100,0.00,,OVC,0.21,WeatherDisplay:10.37,2013-01-31 03:59:00,
2013-01-30 20:01:00,45.2,45.2,30.43,SW,222,3.5,3.5,100,0.00,,OVC,0.21,WeatherDisplay:10.37,2013-01-31 04:01:00,
2013-01-30 20:04:00,45.2,45.2,30.43,SW,222,2.3,2.3,100,0.00,,OVC,0.21,WeatherDisplay:10.37,2013-01-31 04:04:00,
2013-01-30 20:06:00,45.2,45.2,30.43,SW,222,3.0,3.0,100,0.00,,OVC,0.21,WeatherDisplay:10.37,2013-01-31 04:06:00,
2013-01-30 20:09:00,45.2,45.2,30.43,SW,222,0.0,0.0,100,0.00,,OVC,0.21,WeatherDisplay:10.37,2013-01-31 04:09:00,
2013-01-30 20:11:00,45.2,45.2,30.43,SW,222,1.1,0.0,100,0.00,,OVC,0.21,WeatherDisplay:10.37,2013-01-31 04:11:00,
2013-01-30 20:12:00,45.2,45.2,30.43,SW,222,0.0,0.0,100,0.00,,OVC,0.21,WeatherDisplay:10.37,2013-01-31 04:12:00,
2013-01-30 20:14:00,45.1,45.1,30.43,SW,222,2.3,2.3,100,0.00,,OVC,0.21,WeatherDisplay:10.37,2013-01-31 04:14:00,
2013-01-30 20:16:00,45.1,45.1,30.43,SW,222,3.5,0.0,100,0.00,,OVC,0.21,WeatherDisplay:10.37,2013-01-31 04:16:00,
2013-01-30 20:17:00,45.1,45.1,30.43,SW,222,0.0,0.0,100,0.00,,OVC,0.21,WeatherDisplay:10.37,2013-01-31 04:17:00,
2013-01-30 20:19:00,45.1,45.1,30.43,SW,222,1.1,1.1,100,0.00,,OVC,0.21,WeatherDisplay:10.37,2013-01-31 04:19:00,
2013-01-30 20:21:00,45.1,45.1,30.43,SW,222,2.3,2.3,100,0.00,,OVC,0.21,WeatherDisplay:10.37,2013-01-31 04:21:00,
2013-01-30 20:22:00,45.1,45.1,30.43,SW,222,3.5,3.5,100,0.00,,OVC,0.21,WeatherDisplay:10.37,2013-01-31 04:22:00,
2013-01-30 20:24:00,45.1,45.1,30.43,SW,222,2.3,0.0,100,0.00,,OVC,0.21,WeatherDisplay:10.37,2013-01-31 04:24:00,
2013-01-30 20:26:00,45.1,45.1,30.43,SW,222,0.0,0.1,100,0.00,,OVC,0.21,WeatherDisplay:10.37,2013-01-31 04:26:00,
2013-01-30 20:27:00,45.1,45.1,30.43,SW,222,1.1,0.0,100,0.00,,OVC,0.21,WeatherDisplay:10.37,2013-01-31 04:27:00,
2013-01-30 20:29:00,45.1,45.1,30.43,SW,222,1.1,0.0,100,0.00,,OVC,0.21,WeatherDisplay:10.37,2013-01-31 04:29:00,
2013-01-30 20:31:00,45.1,45.1,30.43,SW,222,1.1,1.1,100,0.00,,OVC,0.21,WeatherDisplay:10.37,2013-01-31 04:31:00,
2013-01-30 20:32:00,45.1,45.1,30.43,SW,222,2.3,2.3,100,0.00,,OVC,0.21,WeatherDisplay:10.37,2013-01-31 04:32:00,
2013-01-30 20:34:00,45.1,45.1,30.43,SW,222,2.3,2.3,100,0.00,,OVC,0.21,WeatherDisplay:10.37,2013-01-31 04:34:00,
2013-01-30 20:37:00,45.1,45.1,30.43,SW,222,1.1,1.1,100,0.00,,OVC,0.21,WeatherDisplay:10.37,2013-01-31 04:37:00,
2013-01-30 20:39:00,45.1,45.1,30.43,SW,222,1.1,0.0,100,0.00,,OVC,0.21,WeatherDisplay:10.37,2013-01-31 04:39:00,
2013-01-30 20:42:00,45.1,45.1,30.43,SW,222,0.0,0.0,100,0.00,,OVC,0.21,WeatherDisplay:10.37,2013-01-31 04:42:00,
2013-01-30 20:44:00,45.1,45.1,30.43,SW,222,1.1,0.0,100,0.00,,OVC,0.21,WeatherDisplay:10.37,2013-01-31 04:44:00,
2013-01-30 20:47:00,45.1,45.1,30.43,SW,222,1.1,0.0,100,0.00,,OVC,0.21,WeatherDisplay:10.37,2013-01-31 04:47:00,
2013-01-30 20:49:00,45.1,45.1,30.43,SW,222,1.1,1.1,100,0.00,,OVC,0.21,WeatherDisplay:10.37,2013-01-31 04:49:00,
2013-01-30 20:52:00,45.1,45.1,30.43,SW,222,1.1,1.1,100,0.00,,OVC,0.21,WeatherDisplay:10.37,2013-01-31 04:52:00,
2013-01-30 20:53:00,45.1,45.1,30.43,SW,222,1.1,1.1,100,0.00,,OVC,0.21,WeatherDisplay:10.37,2013-01-31 04:53:00,
2013-01-30 20:54:00,45.1,45.1,30.43,SW,222,0.0,0.0,100,0.00,,OVC,0.21,WeatherDisplay:10.37,2013-01-31 04:54:00,
2013-01-30 20:57:00,45.1,45.1,30.43,SW,222,0.0,0.0,100,0.00,,OVC,0.21,WeatherDisplay:10.37,2013-01-31 04:57:00,
2013-01-30 20:58:00,45.1,45.1,30.43,SW,222,0.0,0.1,100,0.00,,OVC,0.21,WeatherDisplay:10.37,2013-01-31 04:58:00,
2013-01-30 20:59:00,45.1,45.1,30.43,SW,222,1.1,0.0,100,0.00,,OVC,0.21,WeatherDisplay:10.37,2013-01-31 04:59:00,
2013-01-30 21:00:00,45.1,45.1,30.43,SW,222,0.0,0.0,100,0.00,,OVC,0.21,WeatherDisplay:10.37,2013-01-31 05:00:00,
2013-01-30 21:05:00,45.1,45.1,30.43,SW,222,1.1,1.1,100,0.00,,OVC,0.21,WeatherDisplay:10.37,2013-01-31 05:05:00,
2013-01-30 21:06:00,45.1,45.1,30.43,SW,222,1.1,1.1,100,0.00,,OVC,0.21,WeatherDisplay:10.37,2013-01-31 05:06:00,
2013-01-30 21:07:00,45.1,45.1,30.43,SW,222,1.1,1.1,100,0.00,,OVC,0.21,WeatherDisplay:10.37,2013-01-31 05:07:00,
2013-01-30 21:10:00,45.1,45.1,30.43,SW,222,3.0,3.0,100,0.00,,OVC,0.21,WeatherDisplay:10.37,2013-01-31 05:10:00,
2013-01-30 21:11:00,45.1,45.1,30.44,SW,222,3.5,3.5,100,0.00,,OVC,0.21,WeatherDisplay:10.37,2013-01-31 05:11:00,
2013-01-30 21:12:00,45.1,45.1,30.43,SW,222,3.5,3.5,100,0.00,,OVC,0.21,WeatherDisplay:10.37,2013-01-31 05:12:00,
2013-01-30 21:15:00,45.1,45.1,30.44,SW,222,3.5,3.5,100,0.00,,OVC,0.21,WeatherDisplay:10.37,2013-01-31 05:15:00,
2013-01-30 21:16:00,45.1,45.1,30.44,SW,222,2.3,2.3,100,0.00,,OVC,0.21,WeatherDisplay:10.37,2013-01-31 05:16:00,
2013-01-30 21:17:00,45.1,45.1,30.44,SW,222,3.5,3.5,100,0.00,,OVC,0.21,WeatherDisplay:10.37,2013-01-31 05:17:00,
2013-01-30 21:20:00,45.1,45.1,30.44,SW,222,1.1,0.0,100,0.00,,OVC,0.21,WeatherDisplay:10.37,2013-01-31 05:20:00,
2013-01-30 21:21:00,45.1,45.1,30.44,SW,222,0.0,0.1,100,0.00,,OVC,0.21,WeatherDisplay:10.37,2013-01-31 05:21:00,
2013-01-30 21:22:00,45.1,45.1,30.44,SW,222,1.1,0.0,100,0.00,,OVC,0.21,WeatherDisplay:10.37,2013-01-31 05:22:00,
2013-01-30 21:25:00,45.1,45.1,30.44,SW,222,0.0,0.0,100,0.00,,OVC,0.21,WeatherDisplay:10.37,2013-01-31 05:25:00,
2013-01-30 21:26:00,45.1,45.1,30.44,SW,222,2.0,2.0,100,0.00,,OVC,0.21,WeatherDisplay:10.37,2013-01-31 05:26:00,
2013-01-30 21:28:00,45.1,45.1,30.44,SW,222,3.5,3.5,100,0.00,,OVC,0.21,WeatherDisplay:10.37,2013-01-31 05:28:00,
2013-01-30 21:30:00,45.1,45.1,30.44,SW,222,1.1,0.0,100,0.00,,OVC,0.21,WeatherDisplay:10.37,2013-01-31 05:30:00,
2013-01-30 21:31:00,45.1,45.1,30.44,SW,222,1.1,1.1,100,0.00,,OVC,0.21,WeatherDisplay:10.37,2013-01-31 05:31:00,
2013-01-30 21:32:00,45.1,45.1,30.44,SW,222,2.3,2.3,100,0.00,,OVC,0.21,WeatherDisplay:10.37,2013-01-31 05:32:00,
2013-01-30 21:33:00,45.1,45.1,30.44,SW,222,1.1,0.0,100,0.00,,OVC,0.21,WeatherDisplay:10.37,2013-01-31 05:33:00,
2013-01-30 21:35:00,45.1,45.1,30.44,SW,222,3.5,0.0,100,0.00,,OVC,0.21,WeatherDisplay:10.37,2013-01-31 05:35:00,
2013-01-30 21:37:00,45.1,45.1,30.44,SW,222,3.5,3.5,100,0.00,,OVC,0.21,WeatherDisplay:10.37,2013-01-31 05:37:00,
2013-01-30 21:38:00,45.1,45.1,30.44,SW,222,3.5,3.5,100,0.00,,OVC,0.21,WeatherDisplay:10.37,2013-01-31 05:38:00,
2013-01-30 21:40:00,45.1,45.1,30.44,SW,222,3.5,3.5,100,0.00,,OVC,0.21,WeatherDisplay:10.37,2013-01-31 05:40:00,
2013-01-30 21:42:00,45.1,45.1,30.44,SW,222,3.5,3.5,100,0.00,,OVC,0.21,WeatherDisplay:10.37,2013-01-31 05:42:00,
2013-01-30 21:43:00,45.0,45.0,30.44,SW,222,3.5,3.5,100,0.00,,OVC,0.21,WeatherDisplay:10.37,2013-01-31 05:43:00,
2013-01-30 21:45:00,45.0,45.0,30.44,SW,222,2.0,2.0,100,0.00,,OVC,0.21,WeatherDisplay:10.37,2013-01-31 05:45:00,
2013-01-30 21:47:00,45.0,45.0,30.44,SW,222,2.3,2.3,100,0.00,,OVC,0.21,WeatherDisplay:10.37,2013-01-31 05:47:00,
2013-01-30 21:48:00,45.0,45.0,30.44,SW,222,3.5,3.5,100,0.00,,OVC,0.21,WeatherDisplay:10.37,2013-01-31 05:48:00,
2013-01-30 21:50:00,45.0,45.0,30.44,SW,222,3.5,3.5,100,0.00,,OVC,0.21,WeatherDisplay:10.37,2013-01-31 05:50:00,
2013-01-30 21:52:00,45.0,45.0,30.44,SW,222,3.5,3.5,100,0.00,,OVC,0.21,WeatherDisplay:10.37,2013-01-31 05:52:00,
2013-01-30 21:53:00,45.0,45.0,30.44,SW,222,3.5,3.5,100,0.00,,OVC,0.21,WeatherDisplay:10.37,2013-01-31 05:53:00,
2013-01-30 21:55:00,45.0,45.0,30.44,SW,222,3.5,3.5,100,0.00,,OVC,0.21,WeatherDisplay:10.37,2013-01-31 05:55:00,
2013-01-30 21:57:00,45.0,45.0,30.44,SW,222,1.1,1.1,100,0.00,,OVC,0.21,WeatherDisplay:10.37,2013-01-31 05:57:00,
2013-01-30 21:58:00,45.0,45.0,30.44,SW,222,1.1,1.1,100,0.00,,OVC,0.21,WeatherDisplay:10.37,2013-01-31 05:58:00,
2013-01-30 22:00:00,45.0,45.0,30.44,SW,223,3.5,3.5,100,0.00,,OVC,0.21,WeatherDisplay:10.37,2013-01-31 06:00:00,
2013-01-30 22:02:00,45.0,45.0,30.44,SW,223,2.0,2.0,100,0.00,,OVC,0.21,WeatherDisplay:10.37,2013-01-31 06:02:00,
2013-01-30 22:03:00,45.0,45.0,30.44,SW,223,2.3,2.3,100,0.00,,OVC,0.21,WeatherDisplay:10.37,2013-01-31 06:03:00,
2013-01-30 22:06:00,45.0,45.0,30.44,SW,223,2.3,2.3,100,0.00,,OVC,0.21,WeatherDisplay:10.37,2013-01-31 06:06:00,
2013-01-30 22:07:00,45.0,45.0,30.44,SW,223,3.5,3.5,100,0.00,,OVC,0.21,WeatherDisplay:10.37,2013-01-31 06:07:00,
2013-01-30 22:09:00,45.0,45.0,30.45,SW,223,3.0,3.0,100,0.00,,OVC,0.21,WeatherDisplay:10.37,2013-01-31 06:09:00,
2013-01-30 22:11:00,45.0,45.0,30.45,SW,223,3.5,3.5,100,0.00,,OVC,0.21,WeatherDisplay:10.37,2013-01-31 06:11:00,
2013-01-30 22:12:00,45.0,45.0,30.45,SW,223,3.5,3.5,100,0.00,,OVC,0.21,WeatherDisplay:10.37,2013-01-31 06:12:00,
2013-01-30 22:14:00,45.0,45.0,30.45,SW,223,3.5,3.5,100,0.00,,OVC,0.21,WeatherDisplay:10.37,2013-01-31 06:14:00,
2013-01-30 22:16:00,45.0,45.0,30.45,SW,223,3.5,3.5,100,0.00,,OVC,0.21,WeatherDisplay:10.37,2013-01-31 06:16:00,
2013-01-30 22:17:00,45.0,45.0,30.45,SW,223,0.0,0.0,100,0.00,,OVC,0.21,WeatherDisplay:10.37,2013-01-31 06:17:00,
2013-01-30 22:18:00,45.0,45.0,30.45,SW,223,0.0,0.0,100,0.00,,OVC,0.21,WeatherDisplay:10.37,2013-01-31 06:18:00,
2013-01-30 22:19:00,45.0,45.0,30.45,SW,223,2.3,2.3,100,0.00,,OVC,0.21,WeatherDisplay:10.37,2013-01-31 06:19:00,
2013-01-30 22:21:00,45.0,45.0,30.45,SW,223,1.1,1.1,100,0.00,,OVC,0.21,WeatherDisplay:10.37,2013-01-31 06:21:00,
2013-01-30 22:22:00,45.0,45.0,30.45,SW,223,3.5,3.5,100,0.00,,OVC,0.21,WeatherDisplay:10.37,2013-01-31 06:22:00,
2013-01-30 22:23:00,45.0,45.0,30.44,SW,223,3.5,3.5,100,0.00,,OVC,0.21,WeatherDisplay:10.37,2013-01-31 06:23:00,
2013-01-30 22:24:00,45.0,45.0,30.44,SW,223,3.5,0.0,100,0.00,,OVC,0.21,WeatherDisplay:10.37,2013-01-31 06:24:00,
2013-01-30 22:26:00,45.0,45.0,30.44,SW,223,2.3,2.3,100,0.00,,OVC,0.21,WeatherDisplay:10.37,2013-01-31 06:26:00,
2013-01-30 22:27:00,44.9,44.9,30.44,SW,223,3.5,3.5,100,0.00,,OVC,0.21,WeatherDisplay:10.37,2013-01-31 06:27:00,
2013-01-30 22:28:00,44.9,44.9,30.44,SW,223,2.3,2.3,100,0.00,,OVC,0.21,WeatherDisplay:10.37,2013-01-31 06:28:00,
2013-01-30 22:29:00,44.9,44.9,30.44,SW,223,1.1,1.1,100,0.00,,OVC,0.21,WeatherDisplay:10.37,2013-01-31 06:29:00,
2013-01-30 22:31:00,44.9,44.9,30.44,SW,223,2.3,2.3,100,0.00,,OVC,0.21,WeatherDisplay:10.37,2013-01-31 06:31:00,
2013-01-30 22:32:00,44.9,44.9,30.44,SW,223,1.1,1.1,100,0.00,,OVC,0.21,WeatherDisplay:10.37,2013-01-31 06:32:00,
2013-01-30 22:33:00,45.0,45.0,30.44,SW,223,3.5,3.5,100,0.00,,OVC,0.21,WeatherDisplay:10.37,2013-01-31 06:33:00,
2013-01-30 22:35:00,44.9,44.9,30.45,SW,223,3.5,3.5,100,0.00,,OVC,0.21,WeatherDisplay:10.37,2013-01-31 06:35:00,
2013-01-30 22:36:00,44.9,44.9,30.45,SW,223,1.1,1.1,100,0.00,,OVC,0.21,WeatherDisplay:10.37,2013-01-31 06:36:00,
2013-01-30 22:37:00,44.9,44.9,30.45,SW,223,1.1,1.1,100,0.00,,OVC,0.21,WeatherDisplay:10.37,2013-01-31 06:37:00,
2013-01-30 22:38:00,45.0,45.0,30.45,SW,223,4.0,4.0,100,0.00,,OVC,0.21,WeatherDisplay:10.37,2013-01-31 06:38:00,
2013-01-30 22:40:00,44.9,44.9,30.44,SW,223,3.5,3.5,100,0.00,,OVC,0.21,WeatherDisplay:10.37,2013-01-31 06:40:00,
2013-01-30 22:41:00,45.0,45.0,30.45,SW,223,1.1,1.1,100,0.00,,OVC,0.21,WeatherDisplay:10.37,2013-01-31 06:41:00,
2013-01-30 22:42:00,44.9,44.9,30.44,SW,223,3.5,3.5,100,0.00,,OVC,0.21,WeatherDisplay:10.37,2013-01-31 06:42:00,
2013-01-30 22:44:00,44.9,44.9,30.44,SW,223,2.3,2.3,100,0.00,,OVC,0.21,WeatherDisplay:10.37,2013-01-31 06:44:00,
2013-01-30 22:45:00,45.0,45.0,30.44,SW,223,3.5,3.5,100,0.00,,OVC,0.21,WeatherDisplay:10.37,2013-01-31 06:45:00,
2013-01-30 22:46:00,45.0,45.0,30.45,SW,223,3.5,3.5,100,0.00,,OVC,0.21,WeatherDisplay:10.37,2013-01-31 06:46:00,
2013-01-30 22:47:00,45.0,45.0,30.44,SW,223,3.5,3.5,100,0.00,,OVC,0.21,WeatherDisplay:10.37,2013-01-31 06:47:00,
2013-01-30 22:49:00,44.9,44.9,30.45,SW,223,2.3,2.3,100,0.00,,OVC,0.21,WeatherDisplay:10.37,2013-01-31 06:49:00,
2013-01-30 22:50:00,45.0,45.0,30.44,SW,223,2.3,2.3,100,0.00,,OVC,0.21,WeatherDisplay:10.37,2013-01-31 06:50:00,
2013-01-30 22:51:00,45.0,45.0,30.44,SW,223,3.5,3.5,100,0.00,,OVC,0.21,WeatherDisplay:10.37,2013-01-31 06:51:00,
2013-01-30 22:52:00,45.0,45.0,30.44,SW,223,2.0,2.0,100,0.00,,OVC,0.21,WeatherDisplay:10.37,2013-01-31 06:52:00,
2013-01-30 22:54:00,45.0,45.0,30.44,SW,223,3.5,3.5,100,0.00,,OVC,0.21,WeatherDisplay:10.37,2013-01-31 06:54:00,
2013-01-30 22:55:00,45.0,45.0,30.44,SW,223,1.1,1.1,100,0.00,,OVC,0.21,WeatherDisplay:10.37,2013-01-31 06:55:00,
2013-01-30 22:56:00,45.0,45.0,30.44,SW,223,3.5,3.5,100,0.00,,OVC,0.21,WeatherDisplay:10.37,2013-01-31 06:56:00,
2013-01-30 22:57:00,45.0,45.0,30.44,SW,223,3.5,3.5,100,0.00,,OVC,0.21,WeatherDisplay:10.37,2013-01-31 06:57:00,
2013-01-30 22:59:00,45.0,45.0,30.44,SW,223,1.1,1.1,100,0.00,,OVC,0.21,WeatherDisplay:10.37,2013-01-31 06:59:00,
2013-01-30 23:00:00,45.0,45.0,30.44,SW,223,1.1,1.1,100,0.00,,OVC,0.21,WeatherDisplay:10.37,2013-01-31 07:00:00,
2013-01-30 23:01:00,45.0,45.0,30.44,SW,223,3.0,3.0,100,0.00,,OVC,0.21,WeatherDisplay:10.37,2013-01-31 07:01:00,
2013-01-30 23:02:00,45.0,45.0,30.45,SW,223,3.5,3.5,100,0.00,,OVC,0.21,WeatherDisplay:10.37,2013-01-31 07:02:00,
2013-01-30 23:04:00,45.1,45.1,30.45,SW,223,3.5,3.5,100,0.00,,OVC,0.21,WeatherDisplay:10.37,2013-01-31 07:04:00,
2013-01-30 23:05:00,45.1,45.1,30.45,SW,223,3.5,3.5,100,0.00,,OVC,0.21,WeatherDisplay:10.37,2013-01-31 07:05:00,
2013-01-30 23:06:00,45.0,45.0,30.44,SW,223,2.3,2.9,100,0.00,,OVC,0.21,WeatherDisplay:10.37,2013-01-31 07:06:00,
2013-01-30 23:08:00,45.1,45.1,30.45,SW,223,2.3,2.3,100,0.00,,OVC,0.21,WeatherDisplay:10.37,2013-01-31 07:08:00,
2013-01-30 23:09:00,45.1,45.1,30.45,SW,223,2.3,0.0,100,0.00,,OVC,0.21,WeatherDisplay:10.37,2013-01-31 07:09:00,
2013-01-30 23:10:00,45.1,45.1,30.45,SW,223,1.1,1.1,100,0.00,,OVC,0.21,WeatherDisplay:10.37,2013-01-31 07:10:00,
2013-01-30 23:12:00,45.1,45.1,30.45,SW,223,2.3,2.3,100,0.00,,OVC,0.21,WeatherDisplay:10.37,2013-01-31 07:12:00,
2013-01-30 23:13:00,45.1,45.1,30.45,SW,223,2.3,2.3,100,0.00,,OVC,0.21,WeatherDisplay:10.37,2013-01-31 07:13:00,
2013-01-30 23:14:00,45.1,45.1,30.45,SW,223,2.3,2.3,100,0.00,,OVC,0.21,WeatherDisplay:10.37,2013-01-31 07:14:00,
2013-01-30 23:15:00,45.0,45.0,30.45,SW,223,3.5,3.5,100,0.00,,OVC,0.21,WeatherDisplay:10.37,2013-01-31 07:15:00,
2013-01-30 23:17:00,45.1,45.1,30.45,SW,223,2.3,0.0,100,0.00,,OVC,0.21,WeatherDisplay:10.37,2013-01-31 07:17:00,
2013-01-30 23:18:00,45.0,45.0,30.45,SW,223,3.5,3.5,100,0.00,,OVC,0.21,WeatherDisplay:10.37,2013-01-31 07:18:00,
2013-01-30 23:19:00,45.1,45.1,30.45,SW,223,2.3,2.3,100,0.00,,OVC,0.21,WeatherDisplay:10.37,2013-01-31 07:19:00,
2013-01-30 23:20:00,45.1,45.1,30.45,SW,223,2.3,2.3,100,0.00,,OVC,0.21,WeatherDisplay:10.37,2013-01-31 07:20:00,
2013-01-30 23:22:00,45.1,45.1,30.45,SW,223,0.0,0.0,100,0.00,,OVC,0.21,WeatherDisplay:10.37,2013-01-31 07:22:00,
2013-01-30 23:23:00,45.1,45.1,30.45,SW,223,1.1,1.1,100,0.00,,OVC,0.21,WeatherDisplay:10.37,2013-01-31 07:23:00,
2013-01-30 23:25:00,45.1,45.1,30.45,SW,223,3.5,0.0,100,0.00,,OVC,0.21,WeatherDisplay:10.37,2013-01-31 07:25:00,
2013-01-30 23:27:00,45.1,45.1,30.45,SW,223,1.1,0.0,100,0.00,,OVC,0.21,WeatherDisplay:10.37,2013-01-31 07:27:00,
2013-01-30 23:28:00,45.1,45.1,30.45,SW,223,2.3,2.3,100,0.00,,OVC,0.21,WeatherDisplay:10.37,2013-01-31 07:28:00,
2013-01-30 23:30:00,45.1,45.1,30.45,SW,223,1.1,1.1,100,0.00,,OVC,0.21,WeatherDisplay:10.37,2013-01-31 07:30:00,
2013-01-30 23:32:00,45.1,45.1,30.45,SW,223,3.5,3.5,100,0.00,,OVC,0.21,WeatherDisplay:10.37,2013-01-31 07:32:00,
2013-01-30 23:33:00,45.1,45.1,30.45,SW,223,3.5,3.5,100,0.00,,OVC,0.21,WeatherDisplay:10.37,2013-01-31 07:33:00,
2013-01-30 23:35:00,45.1,45.1,30.45,SW,223,2.3,2.3,100,0.00,,OVC,0.21,WeatherDisplay:10.37,2013-01-31 07:35:00,
2013-01-30 23:37:00,45.1,45.1,30.45,SW,223,3.0,3.0,100,0.00,,OVC,0.21,WeatherDisplay:10.37,2013-01-31 07:37:00,
2013-01-30 23:38:00,45.1,45.1,30.45,SW,223,3.5,3.5,100,0.00,,OVC,0.21,WeatherDisplay:10.37,2013-01-31 07:38:00,
2013-01-30 23:40:00,45.1,45.1,30.45,SW,223,3.5,3.5,100,0.00,,OVC,0.21,WeatherDisplay:10.37,2013-01-31 07:40:00,
2013-01-30 23:41:00,45.1,45.1,30.45,SW,223,1.1,1.1,100,0.00,,OVC,0.21,WeatherDisplay:10.37,2013-01-31 07:41:00,
2013-01-30 23:42:00,45.1,45.1,30.45,SW,223,3.5,3.5,100,0.00,,OVC,0.21,WeatherDisplay:10.37,2013-01-31 07:42:00,
2013-01-30 23:43:00,45.1,45.1,30.45,SW,223,3.5,3.5,100,0.00,,OVC,0.21,WeatherDisplay:10.37,2013-01-31 07:43:00,
2013-01-30 23:45:00,45.1,45.1,30.45,SW,223,3.5,3.5,100,0.00,,OVC,0.21,WeatherDisplay:10.37,2013-01-31 07:45:00,
2013-01-30 23:46:00,45.1,45.1,30.45,SW,223,1.1,0.0,100,0.00,,OVC,0.21,WeatherDisplay:10.37,2013-01-31 07:46:00,
2013-01-30 23:47:00,45.1,45.1,30.45,SW,223,2.3,2.3,100,0.00,,OVC,0.21,WeatherDisplay:10.37,2013-01-31 07:47:00,
2013-01-30 23:48:00,45.1,45.1,30.45,SW,223,2.3,2.3,100,0.00,,OVC,0.21,WeatherDisplay:10.37,2013-01-31 07:48:00,
2013-01-30 23:50:00,45.1,45.1,30.45,SW,223,3.5,3.5,100,0.00,,OVC,0.21,WeatherDisplay:10.37,2013-01-31 07:50:00,
2013-01-30 23:51:00,45.1,45.1,30.45,SW,223,3.5,0.0,100,0.00,,OVC,0.21,WeatherDisplay:10.37,2013-01-31 07:51:00,
2013-01-30 23:52:00,45.2,45.2,30.45,SW,223,3.5,3.5,100,0.00,,OVC,0.21,WeatherDisplay:10.37,2013-01-31 07:52:00,
2013-01-30 23:53:00,45.1,45.1,30.45,SW,223,2.3,0.0,100,0.00,,OVC,0.21,WeatherDisplay:10.37,2013-01-31 07:53:00,
2013-01-30 23:55:00,45.2,45.2,30.45,SW,223,0.0,0.0,100,0.00,,OVC,0.21,WeatherDisplay:10.37,2013-01-31 07:55:00,
2013-01-30 23:56:00,45.2,45.2,30.45,SW,223,1.0,0.0,100,0.00,,OVC,0.21,WeatherDisplay:10.37,2013-01-31 07:56:00,
2013-01-30 23:57:00,45.2,45.2,30.45,SW,223,1.0,0.0,100,0.00,,OVC,0.21,WeatherDisplay:10.37,2013-01-31 07:57:00,